Data for 10/19/2009

Time Sea-Level Adjusted Pressure Absolute Pressure Temperature Relative Humidity Dew Point   
(mb) (inHg) (mb) (inHg) (C) (F) (%) (C) (F)
00:05 1018 30.06 847 25.01 6.9 44.4 71 2 35.6
00:10 1018 30.06 847 25.01 6.7 44 71 1.7 35
00:15 1018 30.06 847 25.01 6.6 43.9 71 1.8 35.3
00:20 1018 30.06 847 25.01 6.8 44.3 72 2.1 35.8
00:25 1018 30.06 847 25.01 6.9 44.4 72 2.2 35.9
00:30 1018 30.06 847 25.01 6.9 44.4 71 2.1 35.8
00:35 1018 30.06 847 25.01 7.1 44.7 72 2.4 36.3
00:40 1018 30.06 847 25.01 6.9 44.5 74 2.5 36.6
00:45 1018 30.06 847 25.01 6.9 44.5 74 2.6 36.6
00:50 1018 30.06 847 25.01 6.9 44.4 74 2.6 36.7
00:55 1018 30.06 847 25.01 6.9 44.4 74 2.6 36.7
01:00 1018 30.06 847 25.01 6.9 44.4 73 2.4 36.3
01:05 1018 30.06 848 25.04 6.9 44.5 73 2.5 36.5
01:10 1018 30.06 848 25.04 6.9 44.5 72 2.3 36.2
01:15 1018 30.06 848 25.04 7 44.6 72 2.3 36.2
01:20 1018 30.06 848 25.04 7 44.6 72 2.4 36.2
01:25 1018 30.06 848 25.04 7 44.6 71 2.1 35.7
01:30 1018 30.06 848 25.04 7.1 44.7 72 2.3 36.1
01:35 1018 30.06 848 25.04 7 44.6 71 2.1 35.8
01:40 1018 30.06 848 25.04 7 44.6 70 1.9 35.5
01:45 1018 30.06 848 25.04 7 44.6 71 2.2 35.9
01:50 1018 30.06 848 25.04 6.9 44.4 72 2.2 35.9
01:55 1018 30.06 848 25.04 6.8 44.2 72 2.1 35.8
02:00 1018 30.06 848 25.04 6.8 44.2 72 2 35.7
02:05 1018 30.06 848 25.04 6.9 44.3 72 2.1 35.8
02:10 1018 30.06 848 25.04 6.9 44.5 71 2 35.6
02:15 1019 30.09 848 25.04 6.9 44.5 72 2.2 35.9
02:20 1019 30.09 848 25.04 6.8 44.3 71 1.9 35.4
02:25 1019 30.09 848 25.04 6.9 44.4 69 1.7 35
02:30 1019 30.09 848 25.04 6.9 44.4 69 1.6 35
02:35 1019 30.09 848 25.04 6.8 44.3 70 1.7 35
02:40 1019 30.09 848 25.04 6.9 44.4 69 1.6 34.9
02:45 1019 30.09 848 25.04 6.9 44.3 70 1.8 35.2
02:50 1019 30.09 848 25.04 6.7 44.1 71 1.8 35.3
02:55 1019 30.09 848 25.04 6.6 43.9 72 1.9 35.4
03:00 1019 30.09 848 25.04 6.7 44.1 72 1.9 35.5
03:05 1019 30.09 848 25.04 6.8 44.3 71 1.8 35.3
03:10 1019 30.09 848 25.04 6.9 44.4 70 1.8 35.2
03:15 1019 30.09 848 25.04 6.8 44.3 71 2 35.6
03:20 1019 30.09 848 25.04 6.6 43.9 72 1.9 35.4
03:25 1019 30.09 848 25.04 6.6 43.9 72 1.9 35.4
03:30 1019 30.09 848 25.04 6.5 43.8 73 2.1 35.7
03:35 1019 30.09 848 25.04 6.5 43.8 73 2 35.6
03:40 1019 30.09 848 25.04 6.6 43.9 73 2.2 35.9
03:45 1019 30.09 848 25.04 6.7 44.1 70 1.5 34.8
03:50 1019 30.09 848 25.04 7.4 45.3 67 1.7 35.1
03:55 1019 30.09 848 25.04 7.5 45.5 68 1.9 35.4
04:00 1019 30.09 849 25.07 7.5 45.4 68 1.9 35.4
04:05 1019 30.09 849 25.07 7.3 45.2 69 2 35.7
04:10 1019 30.09 849 25.07 7.1 44.8 69 1.9 35.5
04:15 1019 30.09 849 25.07 7 44.6 69 1.7 35.1
04:20 1019 30.09 849 25.07 7 44.7 69 1.8 35.3
04:25 1019 30.09 849 25.07 7 44.6 70 1.9 35.4
04:30 1019 30.09 849 25.07 7 44.5 69 1.6 34.9
04:35 1019 30.09 849 25.07 7.1 44.8 69 1.9 35.4
04:40 1019 30.09 849 25.07 7 44.6 70 1.9 35.4
04:45 1019 30.09 849 25.07 6.9 44.5 70 1.9 35.5
04:50 1019 30.09 849 25.07 6.7 44.1 72 2.1 35.8
04:55 1019 30.09 849 25.07 6.6 43.8 72 1.9 35.5
05:00 1019 30.09 849 25.07 6.6 43.9 72 1.9 35.4
05:05 1020 30.12 849 25.07 6.7 44 71 1.9 35.4
05:10 1020 30.12 849 25.07 6.7 44.1 70 1.7 35.1
05:15 1020 30.12 849 25.07 6.8 44.3 70 1.8 35.2
05:20 1020 30.12 849 25.07 6.8 44.3 71 1.9 35.4
05:25 1020 30.12 849 25.07 6.8 44.2 71 1.8 35.3
05:30 1020 30.12 849 25.07 6.7 44.1 72 2.1 35.7
05:35 1020 30.12 849 25.07 6.5 43.6 73 2 35.6
05:40 1020 30.12 849 25.07 6.4 43.5 73 1.9 35.4
05:45 1020 30.12 850 25.1 6.4 43.4 73 2 35.5
05:50 1020 30.12 850 25.1 6.1 43.1 74 1.9 35.5
05:55 1020 30.12 849 25.07 6.1 43.1 73 1.6 34.9
06:00 1020 30.12 849 25.07 6.4 43.5 72 1.6 34.9
06:05 1020 30.12 850 25.1 6.5 43.7 71 1.7 35.1
06:10 1020 30.12 850 25.1 6.7 44 71 1.8 35.2
06:15 1021 30.15 850 25.1 6.7 44.1 71 1.9 35.4
06:20 1021 30.15 850 25.1 6.7 44 72 1.9 35.4
06:25 1021 30.15 850 25.1 6.6 43.9 72 1.9 35.4
06:30 1021 30.15 850 25.1 6.5 43.8 72 1.9 35.5
06:35 1021 30.15 850 25.1 6.5 43.7 72 1.9 35.4
06:40 1021 30.15 850 25.1 6.5 43.6 73 1.9 35.5
06:45 1021 30.15 850 25.1 6.5 43.6 73 1.9 35.4
06:50 1021 30.15 850 25.1 6.4 43.5 73 2 35.5
06:55 1021 30.15 850 25.1 6.3 43.3 75 2.2 35.9
07:00 1021 30.15 850 25.1 5.8 42.5 77 2 35.6
07:05 1021 30.15 850 25.1 5.7 42.3 76 1.8 35.3
07:10 1021 30.15 850 25.1 5.8 42.4 76 1.9 35.4
07:15 1021 30.15 850 25.1 5.7 42.2 77 1.9 35.5
07:20 1021 30.15 850 25.1 5.6 42.1 77 1.9 35.4
07:25 1021 30.15 850 25.1 5.5 41.9 78 2 35.6
07:30 1021 30.15 850 25.1 5.3 41.5 79 2 35.5
07:35 1021 30.15 851 25.13 5.2 41.3 78 1.7 35.1
07:40 1021 30.15 851 25.13 5.6 42 76 1.7 35
07:45 1021 30.15 851 25.13 5.8 42.5 76 1.9 35.4
07:50 1021 30.15 851 25.13 5.6 42.2 77 1.9 35.4
07:55 1021 30.15 851 25.13 5.7 42.2 77 1.9 35.4
08:00 1021 30.15 850 25.1 5.5 41.8 77 1.7 35.1
08:05 1021 30.15 850 25.1 5.5 41.9 77 1.7 35.1
08:10 1021 30.15 850 25.1 5.6 42.2 76 1.7 35
08:15 1021 30.15 850 25.1 5.8 42.5 75 1.8 35.2
08:20 1021 30.15 851 25.13 5.9 42.6 74 1.7 35
08:25 1021 30.15 851 25.13 6.2 43.2 73 1.8 35.3
08:30 1021 30.15 851 25.13 6.5 43.8 72 1.9 35.5
08:35 1021 30.15 851 25.13 6.2 43.1 75 2 35.7
08:40 1022 30.18 851 25.13 6.3 43.4 73 1.8 35.3
08:45 1022 30.18 851 25.13 7 44.6 71 2.2 35.9
08:50 1022 30.18 851 25.13 7.5 45.4 69 2.2 36
08:55 1022 30.18 851 25.13 7.4 45.4 68 1.9 35.3
09:00 1022 30.18 851 25.13 7.8 46 68 2.3 36.2
09:05 1022 30.18 851 25.13 7.7 45.8 68 2.3 36.1
09:10 1022 30.18 851 25.13 7.6 45.6 69 2.2 36
09:15 1022 30.18 852 25.16 7.6 45.7 69 2.4 36.4
09:20 1022 30.18 852 25.16 7.8 46 67 2 35.6
09:25 1023 30.21 852 25.16 8 46.3 67 2.3 36.2
09:30 1023 30.21 852 25.16 8.3 47 66 2.4 36.2
09:35 1023 30.21 852 25.16 8.3 47 66 2.3 36.2
09:40 1023 30.21 852 25.16 9 48.2 63 2.4 36.4
09:45 1023 30.21 852 25.16 8.8 47.8 64 2.5 36.5
09:50 1023 30.21 852 25.16 8.5 47.4 66 2.5 36.6
09:55 1023 30.21 852 25.16 8.8 47.9 63 2.3 36.1
10:00 1023 30.21 852 25.16 9.8 49.6 60 2.4 36.3
10:05 1023 30.21 852 25.16 10 50 61 2.9 37.1
10:10 1023 30.21 852 25.16 10.1 50.3 58 2.3 36.2
10:15 1023 30.21 852 25.16 10.5 50.9 56 2.2 35.9
10:20 1023 30.21 852 25.16 11.1 52 56 2.8 37
10:25 1023 30.21 852 25.16 11.1 51.9 54 2.1 35.8
10:30 1023 30.21 852 25.16 11.6 52.8 53 2.5 36.4
10:35 1023 30.21 852 25.16 12 53.5 52 2.6 36.6
10:40 1023 30.21 852 25.16 11.6 52.8 55 2.9 37.2
10:45 1023 30.21 852 25.16 11.3 52.4 56 2.8 37.1
10:50 1023 30.21 852 25.16 11.4 52.5 56 3 37.4
10:55 1023 30.21 852 25.16 10.7 51.2 58 2.8 37
11:00 1023 30.21 852 25.16 10.4 50.7 60 3 37.4
11:05 1023 30.21 852 25.16 9.9 49.9 62 3 37.4
11:10 1023 30.21 852 25.16 9.7 49.5 61 2.5 36.5
11:15 1023 30.21 852 25.16 9.6 49.2 61 2.5 36.5
11:20 1023 30.21 852 25.16 9.9 49.7 60 2.6 36.6
11:25 1023 30.21 852 25.16 9.9 49.8 58 2 35.7
11:30 1023 30.21 852 25.16 9.8 49.6 57 1.6 34.9
11:35 1023 30.21 852 25.16 9.9 49.8 53 0.9 33.6
11:40 1023 30.21 852 25.16 10.1 50.2 51 0.6 33.1
11:45 1023 30.21 852 25.16 10.2 50.4 52 0.7 33.3
11:50 1023 30.21 852 25.16 10.1 50.1 52 0.7 33.3
11:55 1023 30.21 852 25.16 10 50 53 0.9 33.6
12:00 1023 30.21 852 25.16 10.5 50.9 50 0.5 32.8
12:05 1023 30.21 852 25.16 11.2 52.1 46 0.1 32.2
12:10 1023 30.21 852 25.16 11.4 52.4 46 0.3 32.5
12:15 1023 30.21 853 25.19 11.8 53.2 50 1.7 35.1
12:20 1023 30.21 853 25.19 11.3 52.4 38 -2.4 27.6
12:25 1023 30.21 853 25.19 11.5 52.7 36 -3.1 26.5
12:30 1023 30.21 853 25.19 11.6 52.9 37 -2.5 27.6
12:35 1023 30.21 853 25.19 11.5 52.7 38 -2.4 27.7
12:40 1023 30.21 853 25.19 11.4 52.5 37 -2.6 27.3
12:45 1023 30.21 853 25.19 12 53.6 38 -2 28.4
12:50 1023 30.21 852 25.16 12.2 54 34 -3 26.7
12:55 1023 30.21 853 25.19 12.1 53.7 33 -3.5 25.8
13:00 1023 30.21 853 25.19 12.1 53.8 33 -3.4 25.8
13:05 1023 30.21 853 25.19 12.3 54.1 33 -3.5 25.7
13:10 1023 30.21 852 25.16 12.3 54.1 30 -4.7 23.6
13:15 1023 30.21 852 25.16 12.1 53.8 30 -5.1 22.8
13:20 1023 30.21 852 25.16 12.2 54 29 -5.3 22.5
13:25 1023 30.21 852 25.16 12.2 54 29 -5.3 22.5
13:30 1023 30.21 852 25.16 12.3 54.1 30 -4.8 23.4
13:35 1023 30.21 852 25.16 12.3 54.2 29 -5 23
13:40 1023 30.21 852 25.16 12.4 54.3 29 -5.2 22.7
13:45 1023 30.21 852 25.16 12.5 54.6 29 -4.8 23.3
13:50 1023 30.21 852 25.16 12.8 55 29 -4.7 23.6
13:55 1023 30.21 852 25.16 12.7 54.9 29 -5 23.1
14:00 1023 30.21 852 25.16 13 55.4 29 -4.4 24.1
14:05 1023 30.21 852 25.16 13.5 56.2 29 -4.3 24.3
14:10 1023 30.21 852 25.16 13.6 56.5 29 -4 24.9
14:15 1023 30.21 852 25.16 13.2 55.8 31 -3.6 25.5
14:20 1023 30.21 852 25.16 13.4 56.1 29 -4.2 24.5
14:25 1023 30.21 852 25.16 13.7 56.6 30 -3.5 25.7
14:30 1023 30.21 852 25.16 13.4 56.2 30 -3.7 25.4
14:35 1023 30.21 852 25.16 12.7 54.9 31 -3.8 25.2
14:40 1023 30.21 852 25.16 12.9 55.3 31 -3.7 25.4
14:45 1023 30.21 852 25.16 13.1 55.5 31 -3.6 25.5
14:50 1023 30.21 852 25.16 12.9 55.2 31 -3.9 25.1
14:55 1023 30.21 852 25.16 12.8 55.1 31 -3.7 25.4
15:00 1023 30.21 852 25.16 12.9 55.2 30 -4.1 24.7
15:05 1023 30.21 852 25.16 13 55.4 31 -3.8 25.1
15:10 1023 30.21 852 25.16 13.8 56.9 31 -3.1 26.4
15:15 1023 30.21 852 25.16 13.9 57 30 -3.5 25.7
15:20 1023 30.21 852 25.16 13.2 55.7 31 -3.5 25.6
15:25 1023 30.21 852 25.16 13.1 55.6 32 -3.2 26.2
15:30 1023 30.21 852 25.16 13.1 55.6 31 -3.5 25.7
15:35 1023 30.21 852 25.16 12.8 55.1 32 -3.6 25.6
15:40 1023 30.21 852 25.16 12.7 54.8 32 -3.4 25.9
15:45 1023 30.21 852 25.16 12.5 54.6 33 -3.2 26.3
15:50 1023 30.21 852 25.16 12.6 54.8 33 -3.3 26
15:55 1023 30.21 852 25.16 12.9 55.2 33 -3 26.5
16:00 1023 30.21 852 25.16 13 55.4 32 -3.2 26.2
16:05 1023 30.21 852 25.16 12.9 55.2 33 -3.1 26.5
16:10 1023 30.21 852 25.16 12.9 55.2 32 -3.3 26.1
16:15 1023 30.21 852 25.16 13.1 55.7 32 -3.1 26.4
16:20 1023 30.21 852 25.16 13 55.4 33 -2.9 26.8
16:25 1023 30.21 852 25.16 12.9 55.2 33 -2.9 26.7
16:30 1023 30.21 852 25.16 12.8 55 33 -3 26.6
16:35 1023 30.21 852 25.16 13.1 55.5 33 -3 26.7
16:40 1023 30.21 852 25.16 13.2 55.7 32 -3 26.6
16:45 1023 30.21 852 25.16 13 55.4 32 -3.2 26.3
16:50 1023 30.21 852 25.16 12.8 55 32 -3.4 25.9
16:55 1023 30.21 853 25.19 12.8 55 33 -3 26.7
17:00 1023 30.21 852 25.16 13 55.3 33 -2.9 26.8
17:05 1023 30.21 852 25.16 13 55.4 34 -2.6 27.3
17:10 1023 30.21 852 25.16 12.9 55.1 33 -2.8 27
17:15 1023 30.21 853 25.19 12.6 54.7 34 -2.7 27.2
17:20 1023 30.21 853 25.19 12.5 54.6 33 -3.2 26.2
17:25 1023 30.21 853 25.19 12.4 54.3 34 -3.1 26.4
17:30 1023 30.21 853 25.19 12.4 54.3 34 -3 26.5
17:35 1023 30.21 853 25.19 12.3 54.2 35 -2.7 27.2
17:40 1024 30.24 853 25.19 12.2 54 35 -2.6 27.3
17:45 1024 30.24 853 25.19 12.1 53.8 35 -2.7 27.1
17:50 1024 30.24 853 25.19 12 53.6 37 -2.4 27.7
17:55 1024 30.24 853 25.19 11.9 53.3 37 -2.3 27.9
18:00 1024 30.24 853 25.19 11.7 53.1 37 -2.5 27.5
18:05 1024 30.24 853 25.19 11.7 53 36 -2.9 26.9
18:10 1024 30.24 853 25.19 11.7 53.1 36 -2.8 26.9
18:15 1024 30.24 853 25.19 11.8 53.3 36 -2.6 27.4
18:20 1024 30.24 853 25.19 11.7 53.1 37 -2.3 27.9
18:25 1024 30.24 853 25.19 11.5 52.6 39 -2 28.4
18:30 1024 30.24 853 25.19 11 51.8 40 -1.9 28.5
18:35 1024 30.24 853 25.19 10.7 51.3 42 -1.8 28.8
18:40 1024 30.24 853 25.19 10.4 50.8 42 -1.9 28.5
18:45 1024 30.24 853 25.19 10.3 50.5 42 -2 28.3
18:50 1024 30.24 853 25.19 10.3 50.5 41 -2.4 27.8
18:55 1024 30.24 853 25.19 10.2 50.4 41 -2.4 27.8
19:00 1024 30.24 853 25.19 10.2 50.3 41 -2.3 27.8
19:05 1024 30.24 854 25.22 10.2 50.3 42 -2.1 28.2
19:10 1024 30.24 854 25.22 10.2 50.3 41 -2.3 27.8
19:15 1024 30.24 854 25.22 10.2 50.4 42 -2.3 27.9
19:20 1024 30.24 854 25.22 10.1 50.3 43 -1.9 28.5
19:25 1025 30.27 854 25.22 9.9 49.8 44 -1.9 28.7
19:30 1025 30.27 854 25.22 9.8 49.6 45 -1.7 28.9
19:35 1025 30.27 854 25.22 9.6 49.3 45 -1.6 29.1
19:40 1025 30.27 854 25.22 9.5 49.1 46 -1.5 29.3
19:45 1025 30.27 854 25.22 9.3 48.8 47 -1.4 29.4
19:50 1025 30.27 854 25.22 9.2 48.6 48 -1.2 29.9
19:55 1025 30.27 854 25.22 9 48.3 49 -1.2 29.8
20:00 1025 30.27 854 25.22 8.8 47.9 48 -1.5 29.3
20:05 1025 30.27 854 25.22 8.8 47.8 48 -1.5 29.3
20:10 1025 30.27 854 25.22 8.8 47.8 48 -1.5 29.3
20:15 1025 30.27 854 25.22 8.8 47.8 48 -1.6 29.2
20:20 1025 30.27 854 25.22 8.7 47.6 49 -1.5 29.3
20:25 1025 30.27 854 25.22 8.6 47.6 49 -1.6 29.2
20:30 1025 30.27 854 25.22 8.6 47.5 49 -1.6 29.1
20:35 1025 30.27 855 25.25 8.6 47.5 49 -1.6 29.1
20:40 1025 30.27 855 25.25 8.6 47.4 49 -1.4 29.4
20:45 1025 30.27 855 25.25 8.2 46.8 52 -1 30.2
20:50 1025 30.27 855 25.25 7.1 44.8 56 -1.1 30
20:55 1025 30.27 855 25.25 6.3 43.4 58 -1.2 29.9
21:00 1025 30.27 855 25.25 6.2 43.1 58 -1.5 29.3
21:05 1026 30.3 855 25.25 6.6 43.9 55 -1.7 28.9
21:10 1026 30.3 855 25.25 6.9 44.4 56 -1.3 29.6
21:15 1026 30.3 855 25.25 6.8 44.3 56 -1.3 29.6
21:20 1026 30.3 855 25.25 6.8 44.2 56 -1.4 29.6
21:25 1026 30.3 855 25.25 6.8 44.2 56 -1.2 29.8
21:30 1026 30.3 855 25.25 6.6 43.8 57 -1.3 29.6
21:35 1026 30.3 855 25.25 6.4 43.6 58 -1.2 29.8
21:40 1025 30.27 855 25.25 6.1 43 59 -1.3 29.7
21:45 1025 30.27 855 25.25 5.9 42.6 60 -1.2 29.8
21:50 1025 30.27 855 25.25 5.4 41.8 62 -1.3 29.7
21:55 1025 30.27 855 25.25 5.1 41.2 64 -1 30.2
22:00 1025 30.27 855 25.25 4.9 40.9 64 -1.3 29.6
22:05 1025 30.27 855 25.25 4.8 40.6 64 -1.5 29.2
22:10 1026 30.3 855 25.25 4.8 40.7 64 -1.4 29.4
22:15 1025 30.27 855 25.25 5 41.1 62 -1.6 29
22:20 1025 30.27 855 25.25 5.4 41.7 60 -1.8 28.8
22:25 1025 30.27 855 25.25 5.5 41.9 60 -1.6 29.1
22:30 1025 30.27 855 25.25 5.4 41.7 61 -1.4 29.4
22:35 1026 30.3 855 25.25 5.2 41.4 61 -1.6 29.2
22:40 1026 30.3 855 25.25 5.3 41.5 62 -1.4 29.4
22:45 1026 30.3 855 25.25 4.8 40.7 64 -1.4 29.6
22:50 1026 30.3 855 25.25 4.5 40 66 -1.3 29.6
22:55 1026 30.3 855 25.25 4.4 39.9 66 -1.4 29.4
23:00 1026 30.3 855 25.25 4.4 39.9 66 -1.5 29.3
23:05 1026 30.3 855 25.25 4.7 40.5 64 -1.5 29.3
23:10 1026 30.3 855 25.25 4.8 40.7 64 -1.4 29.4
23:15 1026 30.3 855 25.25 4.9 40.8 64 -1.3 29.6
23:20 1026 30.3 855 25.25 4.7 40.5 65 -1.4 29.6
23:25 1026 30.3 855 25.25 4.4 40 66 -1.4 29.5
23:30 1026 30.3 855 25.25 4.1 39.4 67 -1.5 29.4
23:35 1026 30.3 855 25.25 3.9 39 68 -1.4 29.5
23:40 1026 30.3 855 25.25 3.5 38.3 70 -1.5 29.3
23:45 1026 30.3 855 25.25 3.3 38 70 -1.6 29.1
23:50 1026 30.3 855 25.25 3.3 37.9 70 -1.6 29.1
23:55 1026 30.3 855 25.25 3.3 37.9 71 -1.6 29.2
24:00 1026 30.3 855 25.25 3.2 37.7 71 -1.6 29.1
00:05 1026 30.3 855 25.25 3.2 37.7 72 -1.5 29.3
00:10 1026 30.3 855 25.25 3.3 38 71 -1.5 29.3
00:15 1026 30.3 855 25.25 3.5 38.3 70 -1.5 29.4
00:20 1026 30.3 855 25.25 3.5 38.3 70 -1.4 29.5
00:25 1026 30.3 855 25.25 3.5 38.3 70 -1.3 29.6
00:30 1026 30.3 855 25.25 3.5 38.2 70 -1.4 29.4
00:35 1026 30.3 855 25.25 3.3 38 71 -1.5 29.4
00:40 1026 30.3 855 25.25 3.2 37.7 71 -1.5 29.3
00:45 1026 30.3 855 25.25 3.2 37.8 72 -1.4 29.5
00:50 1026 30.3 855 25.25 3.3 38 72 -1.3 29.7
00:55 1026 30.3 855 25.25 3.1 37.6 73 -1.3 29.7
01:00 1026 30.3 855 25.25 2.9 37.2 72 -1.6 29.1
01:05 1026 30.3 855 25.25 2.7 36.9 72 -1.8 28.8
01:10 1026 30.3 855 25.25 2.7 36.9 73 -1.7 29
01:15 1026 30.3 855 25.25 2.8 37.1 72 -1.7 29
01:20 1026 30.3 855 25.25 2.6 36.6 74 -1.7 29
01:25 1026 30.3 855 25.25 1.8 35.3 79 -1.5 29.3
01:30 1026 30.3 855 25.25 2 35.6 75 -2.1 28.3
01:35 1026 30.3 855 25.25 2.7 36.8 73 -1.7 28.9
01:40 1026 30.3 855 25.25 2.9 37.2 72 -1.7 28.9
01:45 1026 30.3 855 25.25 3.1 37.7 71 -1.6 29
01:50 1026 30.3 855 25.25 3.1 37.6 72 -1.5 29.2
01:55 1026 30.3 855 25.25 2.9 37.2 72 -1.6 29.1
02:00 1026 30.3 856 25.28 2.8 37 73 -1.7 29
02:05 1026 30.3 856 25.28 2.7 36.9 73 -1.7 28.9
02:10 1026 30.3 856 25.28 2.8 37 73 -1.7 29
02:15 1026 30.3 856 25.28 2.7 36.8 73 -1.6 29.1
02:20 1026 30.3 856 25.28 2.5 36.5 74 -1.6 29.1
02:25 1026 30.3 856 25.28 2.4 36.3 74 -1.7 28.9
02:30 1026 30.3 856 25.28 2.2 36 75 -1.7 29
02:35 1026 30.3 856 25.28 2 35.6 77 -1.7 29
02:40 1026 30.3 856 25.28 1.8 35.2 78 -1.7 28.9
02:45 1027 30.33 856 25.28 1.8 35.3 76 -1.9 28.6
02:50 1027 30.33 856 25.28 2.2 35.9 74 -1.9 28.5
02:55 1027 30.33 856 25.28 2.4 36.4 74 -1.7 29
03:00 1027 30.33 856 25.28 2.1 35.8 76 -1.7 29
03:05 1027 30.33 856 25.28 2 35.5 76 -1.8 28.8
03:10 1027 30.33 856 25.28 2 35.7 75 -1.9 28.6
03:15 1027 30.33 856 25.28 2.3 36.1 75 -1.7 28.9
03:20 1027 30.33 856 25.28 2.2 36 75 -1.7 28.9
03:25 1027 30.33 856 25.28 2.2 35.9 75 -1.7 28.9
03:30 1027 30.33 856 25.28 2.1 35.8 76 -1.7 28.9
03:35 1027 30.33 856 25.28 1.8 35.3 77 -1.8 28.7
03:40 1027 30.33 856 25.28 1.9 35.4 76 -1.8 28.7
03:45 1027 30.33 856 25.28 1.8 35.2 77 -1.8 28.8
03:50 1027 30.33 856 25.28 1.5 34.7 78 -1.8 28.7
03:55 1027 30.33 856 25.28 1.5 34.6 78 -2 28.3
04:00 1027 30.33 856 25.28 1.8 35.2 77 -1.9 28.7
04:05 1027 30.33 856 25.28 2 35.6 76 -1.8 28.7
04:10 1027 30.33 856 25.28 2 35.6 76 -1.8 28.8
04:15 1027 30.33 856 25.28 2.1 35.7 76 -1.8 28.7
04:20 1027 30.33 856 25.28 2.2 36 75 -1.7 28.9
04:25 1027 30.33 856 25.28 2.2 36 75 -1.8 28.8
04:30 1027 30.33 856 25.28 2.4 36.4 73 -1.9 28.5
04:35 1027 30.33 856 25.28 2.6 36.7 73 -1.7 29
04:40 1027 30.33 856 25.28 2.2 35.9 75 -1.7 28.9
04:45 1027 30.33 856 25.28 1.9 35.5 76 -1.8 28.7
04:50 1027 30.33 856 25.28 1.8 35.2 77 -1.9 28.7
04:55 1027 30.33 856 25.28 1.7 35.1 77 -1.9 28.6
05:00 1027 30.33 856 25.28 1.6 34.8 78 -1.9 28.6
05:05 1027 30.33 856 25.28 1.2 34.2 80 -1.8 28.8
05:10 1027 30.33 856 25.28 1.6 34.9 77 -1.9 28.6
05:15 1027 30.33 856 25.28 1.8 35.3 76 -1.9 28.6
05:20 1027 30.33 856 25.28 1.8 35.3 77 -1.7 28.9
05:25 1027 30.33 856 25.28 1.8 35.2 78 -1.7 28.9
05:30 1027 30.33 856 25.28 2 35.5 76 -1.8 28.8
05:35 1027 30.33 856 25.28 2.3 36.1 75 -1.8 28.8
05:40 1027 30.33 856 25.28 2.6 36.6 72 -1.9 28.6
05:45 1027 30.33 856 25.28 2.9 37.3 72 -1.7 28.9
05:50 1027 30.33 856 25.28 2.9 37.2 72 -1.6 29.1
05:55 1027 30.33 856 25.28 2.7 36.9 73 -1.6 29.1
06:00 1027 30.33 856 25.28 2.6 36.6 73 -1.8 28.7
06:05 1027 30.33 856 25.28 2.5 36.6 74 -1.6 29.1
06:10 1027 30.33 856 25.28 2.2 36 76 -1.6 29
06:15 1027 30.33 856 25.28 2.1 35.7 75 -1.9 28.7
06:20 1027 30.33 856 25.28 2.1 35.7 75 -1.8 28.7
06:25 1027 30.33 856 25.28 2.2 35.9 75 -1.9 28.6
06:30 1027 30.33 856 25.28 2.1 35.9 76 -1.7 29
06:35 1027 30.33 857 25.31 1.9 35.4 77 -1.7 29
06:40 1027 30.33 856 25.28 1.2 34.1 81 -1.7 28.9
06:45 1027 30.33 857 25.31 1.2 34.2 80 -1.8 28.8
06:50 1027 30.33 857 25.31 1.6 34.9 78 -1.8 28.8
06:55 1027 30.33 857 25.31 2 35.6 76 -1.8 28.7
07:00 1027 30.33 857 25.31 2.5 36.4 74 -1.7 29
07:05 1028 30.36 857 25.31 2.5 36.5 74 -1.7 29
07:10 1028 30.36 857 25.31 2.4 36.3 76 -1.4 29.5
07:15 1028 30.36 857 25.31 2.6 36.6 73 -1.7 28.9
07:20 1028 30.36 857 25.31 2.9 37.2 74 -1.4 29.5
07:25 1028 30.36 857 25.31 3 37.4 72 -1.5 29.3
07:30 1028 30.36 857 25.31 3.1 37.5 72 -1.6 29.2
07:35 1028 30.36 857 25.31 3.3 38 71 -1.3 29.6
07:40 1028 30.36 857 25.31 3.5 38.3 69 -1.7 29
07:45 1028 30.36 857 25.31 3.9 39 67 -1.8 28.8
07:50 1028 30.36 857 25.31 4.5 40.2 65 -1.5 29.3
07:55 1028 30.36 857 25.31 4 39.1 69 -1.2 29.8
08:00 1028 30.36 857 25.31 2.7 36.9 74 -1.4 29.4
08:05 1028 30.36 857 25.31 1.9 35.4 78 -1.6 29.2
08:10 1028 30.36 857 25.31 1.7 35 78 -1.8 28.8
08:15 1028 30.36 857 25.31 1.5 34.6 80 -1.6 29.1
08:20 1028 30.36 857 25.31 1.8 35.2 77 -1.8 28.7
08:25 1028 30.36 857 25.31 2.5 36.5 74 -1.6 29.1
08:30 1028 30.36 857 25.31 3.1 37.5 72 -1.5 29.3
08:35 1028 30.36 857 25.31 3.4 38.2 70 -1.5 29.3
08:40 1028 30.36 857 25.31 3.8 38.8 70 -1.1 30
08:45 1028 30.36 857 25.31 4 39.2 68 -1.4 29.4
08:50 1028 30.36 857 25.31 4 39.2 69 -1.2 29.9
08:55 1028 30.36 858 25.34 3.7 38.7 70 -1.2 29.8
09:00 1028 30.36 857 25.31 3.9 39 68 -1.5 29.3
09:05 1028 30.36 858 25.34 4.9 40.9 65 -1.2 29.9
09:10 1028 30.36 857 25.31 5.3 41.5 63 -1.2 29.9
09:15 1028 30.36 858 25.34 5.7 42.2 62 -1 30.1
09:20 1028 30.36 858 25.34 6.3 43.4 61 -0.6 30.9
09:25 1028 30.36 858 25.34 6.5 43.7 60 -0.6 31
09:30 1029 30.39 858 25.34 6.8 44.3 57 -1.1 30
09:35 1029 30.39 858 25.34 7.7 45.9 54 -0.9 30.3
09:40 1029 30.39 858 25.34 8.3 46.9 52 -1 30.1
09:45 1029 30.39 858 25.34 8.8 47.8 50 -1 30.2
09:50 1029 30.39 858 25.34 8.5 47.4 53 -0.6 30.9
09:55 1029 30.39 858 25.34 8.2 46.8 53 -0.8 30.5
10:00 1029 30.39 858 25.34 8.2 46.7 53 -0.8 30.6
10:05 1029 30.39 858 25.34 8.4 47.1 53 -0.6 30.9
10:10 1029 30.39 858 25.34 8.9 47.9 52 -0.5 31.2
10:15 1029 30.39 858 25.34 8.8 47.9 51 -0.8 30.6
10:20 1029 30.39 858 25.34 9.1 48.4 51 -0.5 31
10:25 1029 30.39 858 25.34 9.6 49.3 49 -0.5 31
10:30 1029 30.39 858 25.34 10.2 50.4 47 -0.4 31.2
10:35 1029 30.39 858 25.34 10.4 50.7 48 -0.3 31.5
10:40 1029 30.39 858 25.34 10.2 50.3 48 -0.2 31.7
10:45 1028 30.36 858 25.34 10.4 50.8 46 -0.6 31
10:50 1028 30.36 858 25.34 11.1 51.9 46 -0.2 31.6
10:55 1028 30.36 858 25.34 11 51.8 45 -0.3 31.4
11:00 1028 30.36 858 25.34 11 51.7 45 -0.3 31.4
11:05 1028 30.36 858 25.34 11.4 52.5 45 -0.2 31.7
11:10 1028 30.36 858 25.34 11.7 53 44 -0.2 31.6
11:15 1028 30.36 858 25.34 12.1 53.7 46 0.8 33.4
11:20 1028 30.36 858 25.34 12.3 54.2 43 0.2 32.4
11:25 1028 30.36 858 25.34 12.2 54 42 -0.4 31.3
11:30 1028 30.36 858 25.34 12.5 54.5 42 0.1 32.2
11:35 1028 30.36 858 25.34 12.4 54.3 41 -0.6 31
11:40 1028 30.36 858 25.34 12.9 55.3 40 -0.2 31.6
11:45 1028 30.36 858 25.34 13 55.4 40 -0.3 31.5
11:50 1028 30.36 858 25.34 12.9 55.2 43 0.7 33.2
11:55 1028 30.36 858 25.34 11.3 52.3 46 0.2 32.4
12:00 1028 30.36 858 25.34 11.2 52.2 44 -0.6 30.9
12:05 1028 30.36 857 25.31 12.9 55.1 41 -0.1 31.9
12:10 1028 30.36 857 25.31 13 55.3 40 -0.4 31.3
12:15 1028 30.36 857 25.31 14 57.3 38 0.2 32.3
12:20 1028 30.36 857 25.31 14.8 58.6 36 0.1 32.1
12:25 1028 30.36 857 25.31 14.9 58.9 36 -0 31.9
12:30 1028 30.36 857 25.31 14.6 58.2 36 -0.4 31.3
12:35 1028 30.36 857 25.31 15.2 59.3 35 0 32.1
12:40 1028 30.36 857 25.31 15.7 60.2 33 -0.3 31.5
12:45 1028 30.36 857 25.31 15.9 60.6 34 0 32
12:50 1028 30.36 857 25.31 15.7 60.3 34 0.1 32.1
12:55 1028 30.36 857 25.31 16.1 61 33 -0.1 31.8
13:00 1028 30.36 857 25.31 17 62.6 31 -0 32
13:05 1028 30.36 857 25.31 16.7 62 32 0.1 32.1
13:10 1028 30.36 857 25.31 17.1 62.9 31 0 32
13:15 1028 30.36 857 25.31 16.1 61 33 0.1 32.2
13:20 1028 30.36 857 25.31 16 60.8 33 -0.2 31.6
13:25 1028 30.36 857 25.31 16.2 61.2 34 0.4 32.7
13:30 1028 30.36 857 25.31 16 60.9 33 0 32.1
13:35 1028 30.36 857 25.31 15.7 60.3 34 0.1 32.3
13:40 1028 30.36 857 25.31 16.1 60.9 34 0.2 32.4
13:45 1028 30.36 857 25.31 15.9 60.6 35 0.5 32.8
13:50 1028 30.36 857 25.31 15.9 60.7 34 0 32.1
13:55 1028 30.36 857 25.31 16.1 61 34 0.2 32.4
14:00 1028 30.36 857 25.31 16.9 62.5 32 0.4 32.6
14:05 1027 30.33 857 25.31 16.9 62.3 34 0.9 33.7
14:10 1027 30.33 857 25.31 16.2 61.2 33 0 32.1
14:15 1027 30.33 857 25.31 16.2 61.2 34 0.3 32.5
14:20 1027 30.33 856 25.28 16.2 61.2 34 0.3 32.5
14:25 1027 30.33 856 25.28 16.3 61.3 33 0.2 32.4
14:30 1027 30.33 856 25.28 16.4 61.5 34 0.5 32.8
14:35 1027 30.33 856 25.28 16.2 61.2 33 0.2 32.3
14:40 1027 30.33 856 25.28 16.1 61 34 0.2 32.3
14:45 1027 30.33 856 25.28 16.3 61.4 33 0.1 32.1
14:50 1027 30.33 856 25.28 16.3 61.3 36 1.1 34
14:55 1027 30.33 856 25.28 15.5 59.8 36 0.5 32.9
15:00 1027 30.33 856 25.28 15.3 59.5 35 0.1 32.1
15:05 1027 30.33 856 25.28 16.4 61.6 33 0.1 32.2
15:10 1027 30.33 856 25.28 16.4 61.5 33 0.1 32.2
15:15 1027 30.33 856 25.28 16.6 61.8 32 -0.1 31.7
15:20 1027 30.33 856 25.28 16.9 62.5 32 0.2 32.4
15:25 1027 30.33 856 25.28 15.8 60.4 33 -0.3 31.5
15:30 1027 30.33 856 25.28 15.9 60.7 34 0.2 32.4
15:35 1027 30.33 856 25.28 15.8 60.4 34 -0.1 31.9
15:40 1027 30.33 856 25.28 16 60.8 33 -0.3 31.4
15:45 1027 30.33 856 25.28 16.2 61.1 33 -0.1 31.9
15:50 1027 30.33 856 25.28 16.5 61.7 32 -0.3 31.5
15:55 1027 30.33 856 25.28 16.9 62.4 32 0.1 32.1
16:00 1027 30.33 856 25.28 16.6 61.8 33 0.5 33
16:05 1027 30.33 856 25.28 16.6 61.8 32 -0.2 31.7
16:10 1026 30.3 856 25.28 16.6 61.9 32 -0.1 31.7
16:15 1026 30.3 856 25.28 16.6 61.8 33 0.4 32.8
16:20 1026 30.3 856 25.28 16.7 62.1 32 0 32
16:25 1026 30.3 856 25.28 16.6 61.8 33 0.4 32.6
16:30 1026 30.3 856 25.28 16.6 61.9 32 -0.2 31.7
16:35 1026 30.3 856 25.28 17.5 63.4 30 0 32
16:40 1026 30.3 856 25.28 17.8 64 30 0.1 32.3
16:45 1026 30.3 856 25.28 17.6 63.7 30 0 32.1
16:50 1026 30.3 856 25.28 17.4 63.3 31 0.3 32.5
16:55 1026 30.3 856 25.28 17.2 62.9 31 0.1 32.1
17:00 1026 30.3 855 25.25 17.2 63 31 0.1 32.2
17:05 1026 30.3 855 25.25 16.4 61.4 33 0 32.1
17:10 1026 30.3 855 25.25 16.8 62.2 32 0.1 32.3
17:15 1026 30.3 855 25.25 16.8 62.3 32 0.2 32.4
17:20 1026 30.3 855 25.25 16.9 62.4 32 0.1 32.3
17:25 1026 30.3 855 25.25 16.7 62 33 0.4 32.6
17:30 1026 30.3 855 25.25 15.7 60.3 34 -0.1 31.9
17:35 1026 30.3 855 25.25 16 60.9 34 0.2 32.3
17:40 1026 30.3 855 25.25 16.4 61.5 33 0.1 32.1
17:45 1026 30.3 855 25.25 16.5 61.7 33 0.3 32.5
17:50 1026 30.3 855 25.25 15.5 59.9 36 0.6 33
17:55 1026 30.3 855 25.25 15 59 36 0.2 32.3
18:00 1026 30.3 855 25.25 15 59 36 0.1 32.2
18:05 1026 30.3 855 25.25 14.8 58.7 37 0.4 32.7
18:10 1026 30.3 855 25.25 14.8 58.6 37 0.4 32.8
18:15 1026 30.3 855 25.25 14.9 58.8 37 0.4 32.8
18:20 1026 30.3 855 25.25 14.8 58.6 38 0.5 33
18:25 1026 30.3 855 25.25 14.3 57.7 39 0.6 33
18:30 1026 30.3 855 25.25 14 57.1 40 0.6 33.1
18:35 1026 30.3 855 25.25 13.8 56.8 40 0.5 32.9
18:40 1026 30.3 855 25.25 13.5 56.3 44 1.4 34.6
18:45 1026 30.3 855 25.25 13.1 55.6 45 1.4 34.6
18:50 1026 30.3 855 25.25 12.8 55 50 2.7 36.9
18:55 1026 30.3 855 25.25 11.6 52.8 53 2.4 36.4
19:00 1026 30.3 855 25.25 11 51.7 54 2.1 35.8
19:05 1026 30.3 855 25.25 10.5 50.9 56 2.1 35.8
19:10 1026 30.3 855 25.25 10.2 50.3 56 1.9 35.4
19:15 1026 30.3 855 25.25 10 50 56 1.7 35.1
19:20 1026 30.3 855 25.25 9.9 49.8 56 1.7 35
19:25 1026 30.3 855 25.25 9.6 49.2 58 1.7 35.1
19:30 1026 30.3 855 25.25 9.2 48.5 60 1.8 35.2
19:35 1026 30.3 855 25.25 8.9 48 61 1.7 35.1
19:40 1026 30.3 855 25.25 8.7 47.6 61 1.6 35
19:45 1026 30.3 855 25.25 8.7 47.6 60 1.4 34.6
19:50 1026 30.3 855 25.25 8.8 47.9 60 1.4 34.5
19:55 1026 30.3 855 25.25 8.9 47.9 60 1.5 34.7
20:00 1026 30.3 855 25.25 8.8 47.9 60 1.6 34.8
20:05 1026 30.3 855 25.25 8.3 46.9 64 1.8 35.2
20:10 1026 30.3 855 25.25 8.1 46.5 61 1 33.8
20:15 1026 30.3 855 25.25 8.7 47.6 58 1 33.8
20:20 1026 30.3 855 25.25 8.8 47.8 59 1.4 34.5
20:25 1026 30.3 855 25.25 8.7 47.6 59 1.3 34.3
20:30 1026 30.3 855 25.25 8.5 47.4 61 1.4 34.5
20:35 1026 30.3 855 25.25 8.1 46.5 62 1.3 34.4
20:40 1026 30.3 855 25.25 7.8 46 63 1.2 34.2
20:45 1026 30.3 855 25.25 7.4 45.3 65 1.3 34.3
20:50 1026 30.3 855 25.25 6.9 44.5 66 1.1 33.9
20:55 1026 30.3 855 25.25 7.2 45 64 0.9 33.7
21:00 1026 30.3 855 25.25 7.5 45.4 64 1 33.8
21:05 1026 30.3 855 25.25 7.5 45.5 62 0.8 33.4
21:10 1026 30.3 855 25.25 8.1 46.6 60 0.9 33.7
21:15 1026 30.3 855 25.25 7.9 46.2 63 1.2 34.2
21:20 1026 30.3 855 25.25 7.2 45 65 1 33.8
21:25 1026 30.3 855 25.25 7.4 45.2 63 0.7 33.3
21:30 1026 30.3 855 25.25 7.6 45.6 62 0.8 33.5
21:35 1025 30.27 855 25.25 7.5 45.5 62 0.7 33.3
21:40 1025 30.27 855 25.25 7.5 45.5 62 0.8 33.4
21:45 1025 30.27 855 25.25 7.6 45.7 61 0.6 33.2
21:50 1025 30.27 855 25.25 7.6 45.6 62 0.8 33.4
21:55 1025 30.27 855 25.25 7.3 45.1 63 0.7 33.3
22:00 1025 30.27 855 25.25 7.1 44.9 63 0.5 33
22:05 1025 30.27 855 25.25 7.4 45.2 62 0.6 33.1
22:10 1026 30.3 855 25.25 7.3 45.1 62 0.6 33
22:15 1026 30.3 855 25.25 7.2 45 63 0.7 33.2
22:20 1026 30.3 855 25.25 7.1 44.7 63 0.6 33.1
22:25 1026 30.3 855 25.25 7 44.6 63 0.5 33
22:30 1026 30.3 855 25.25 7.2 44.9 62 0.4 32.8
22:35 1026 30.3 855 25.25 7.4 45.3 60 0.3 32.5
22:40 1026 30.3 855 25.25 7.9 46.3 59 0.4 32.7
22:45 1026 30.3 855 25.25 8 46.4 59 0.4 32.7
22:50 1026 30.3 855 25.25 8 46.5 58 0.4 32.7
22:55 1026 30.3 855 25.25 8.2 46.7 58 0.4 32.7
23:00 1026 30.3 855 25.25 8.2 46.7 59 0.6 33.1
23:05 1026 30.3 855 25.25 8 46.4 58 0.4 32.7
23:10 1026 30.3 855 25.25 8.3 47 57 0.4 32.7
23:15 1026 30.3 855 25.25 8.7 47.7 55 0.4 32.6
23:20 1026 30.3 855 25.25 8.8 47.9 56 0.5 32.9
23:25 1026 30.3 855 25.25 8.4 47.1 58 0.6 33.1
23:30 1026 30.3 855 25.25 7.9 46.2 60 0.6 33.1
23:35 1026 30.3 855 25.25 7.4 45.3 61 0.4 32.7
23:40 1026 30.3 855 25.25 7.5 45.4 61 0.4 32.7
23:45 1026 30.3 855 25.25 7.4 45.3 61 0.4 32.8
23:50 1026 30.3 855 25.25 7.4 45.3 62 0.6 33
23:55 1026 30.3 855 25.25 6.9 44.4 64 0.6 33.2
24:00 1026 30.3 855 25.25 6.5 43.7 66 0.7 33.2
00:05 1026 30.3 855 25.25 6.3 43.3 66 0.4 32.7
00:10 1026 30.3 855 25.25 6.6 43.9 64 0.2 32.4
00:15 1026 30.3 855 25.25 7 44.7 62 0.4 32.7
00:20 1026 30.3 855 25.25 7.2 45 62 0.4 32.8
00:25 1026 30.3 855 25.25 7.3 45.2 62 0.5 32.9
00:30 1026 30.3 855 25.25 7.4 45.3 62 0.6 33.1
00:35 1026 30.3 855 25.25 6.9 44.4 65 0.8 33.5
00:40 1026 30.3 855 25.25 6.4 43.6 66 0.6 33
00:45 1026 30.3 855 25.25 6.2 43.2 66 0.3 32.5
00:50 1026 30.3 855 25.25 6.6 43.9 65 0.5 32.9
00:55 1026 30.3 855 25.25 7 44.5 62 0.3 32.6
01:00 1026 30.3 855 25.25 7 44.6 64 0.7 33.2
01:05 1026 30.3 855 25.25 6.5 43.7 66 0.6 33
01:10 1026 30.3 855 25.25 6.7 44.1 64 0.4 32.6
01:15 1026 30.3 855 25.25 6.5 43.7 67 0.8 33.5
01:20 1026 30.3 855 25.25 5.9 42.7 67 0.3 32.6
01:25 1026 30.3 855 25.25 6.4 43.5 65 0.3 32.6
01:30 1026 30.3 855 25.25 6.5 43.7 65 0.4 32.6
01:35 1025 30.27 855 25.25 6.8 44.2 64 0.3 32.6
01:40 1025 30.27 855 25.25 6.9 44.5 63 0.3 32.5
01:45 1025 30.27 855 25.25 7.4 45.3 61 0.4 32.7
01:50 1025 30.27 855 25.25 7.5 45.5 61 0.6 33
01:55 1025 30.27 854 25.22 7.4 45.4 62 0.6 33
02:00 1025 30.27 854 25.22 7.4 45.3 63 0.7 33.3
02:05 1025 30.27 854 25.22 7 44.6 64 0.6 33.2
02:10 1025 30.27 854 25.22 6.8 44.2 65 0.6 33.1
02:15 1025 30.27 854 25.22 6.5 43.7 65 0.5 32.9
02:20 1025 30.27 854 25.22 6.5 43.6 66 0.6 33
02:25 1025 30.27 854 25.22 6.7 44.1 64 0.4 32.7
02:30 1025 30.27 854 25.22 7.1 44.7 62 0.4 32.7
02:35 1025 30.27 854 25.22 7.2 44.9 63 0.7 33.3
02:40 1025 30.27 854 25.22 7 44.5 63 0.4 32.6
02:45 1025 30.27 854 25.22 7.2 44.9 62 0.5 32.9
02:50 1025 30.27 854 25.22 7.1 44.7 63 0.5 32.8
02:55 1025 30.27 854 25.22 7.5 45.5 60 0.1 32.2
03:00 1025 30.27 854 25.22 8 46.3 59 0.5 32.8
03:05 1025 30.27 854 25.22 7.9 46.2 60 0.6 33.1
03:10 1025 30.27 854 25.22 7.6 45.6 61 0.6 33.1
03:15 1025 30.27 854 25.22 7.5 45.4 61 0.4 32.8
03:20 1025 30.27 854 25.22 7.2 45 62 0.5 32.9
03:25 1025 30.27 854 25.22 7.2 45 62 0.5 32.9
03:30 1025 30.27 854 25.22 7.5 45.5 60 0.3 32.6
03:35 1025 30.27 854 25.22 7.7 45.8 60 0.5 32.9
03:40 1025 30.27 854 25.22 7.5 45.5 61 0.6 33.1
03:45 1025 30.27 854 25.22 7.3 45.1 62 0.5 32.8
03:50 1025 30.27 854 25.22 7.1 44.8 63 0.5 33
03:55 1025 30.27 854 25.22 6.9 44.5 64 0.6 33
04:00 1025 30.27 854 25.22 6.9 44.5 63 0.5 32.9
04:05 1025 30.27 854 25.22 7.1 44.8 62 0.5 32.8
04:10 1025 30.27 854 25.22 7.3 45.1 62 0.4 32.7
04:15 1025 30.27 854 25.22 7.4 45.3 62 0.6 33.1
04:20 1025 30.27 854 25.22 7.3 45.1 62 0.6 33.1
04:25 1025 30.27 854 25.22 7 44.5 65 0.9 33.7
04:30 1025 30.27 854 25.22 5.9 42.6 70 0.8 33.5
04:35 1025 30.27 854 25.22 5.3 41.6 71 0.6 33.1
04:40 1025 30.27 854 25.22 5.8 42.5 68 0.3 32.6
04:45 1025 30.27 854 25.22 6.3 43.4 67 0.6 33.1
04:50 1025 30.27 854 25.22 6.2 43.2 68 0.7 33.2
04:55 1025 30.27 854 25.22 6.3 43.3 67 0.5 32.9
05:00 1024 30.24 854 25.22 6.2 43.2 67 0.6 33.1
05:05 1024 30.24 854 25.22 6.2 43.1 66 0.4 32.7
05:10 1024 30.24 854 25.22 6.5 43.7 66 0.5 32.9
05:15 1024 30.24 854 25.22 6.7 44.1 64 0.4 32.7
05:20 1024 30.24 854 25.22 6.7 44 65 0.5 33
05:25 1024 30.24 853 25.19 6.5 43.6 66 0.5 32.9
05:30 1024 30.24 853 25.19 6.4 43.4 66 0.4 32.7
05:35 1024 30.24 853 25.19 6.3 43.4 66 0.4 32.7
05:40 1024 30.24 853 25.19 6.3 43.3 66 0.5 32.9
05:45 1024 30.24 853 25.19 6.3 43.3 66 0.4 32.7
05:50 1024 30.24 853 25.19 6.4 43.5 66 0.5 32.8
05:55 1024 30.24 853 25.19 6.4 43.5 66 0.4 32.8
06:00 1024 30.24 853 25.19 6.3 43.4 66 0.5 32.8
06:05 1024 30.24 853 25.19 6.5 43.6 66 0.5 32.9
06:10 1024 30.24 853 25.19 6.4 43.5 66 0.6 33
06:15 1024 30.24 853 25.19 6.2 43.1 67 0.6 33
06:20 1024 30.24 853 25.19 6 42.8 68 0.5 32.9
06:25 1024 30.24 853 25.19 5.8 42.4 68 0.3 32.6
06:30 1024 30.24 853 25.19 6 42.8 66 0.2 32.4
06:35 1024 30.24 853 25.19 6.3 43.3 66 0.4 32.7
06:40 1024 30.24 853 25.19 6.3 43.4 66 0.4 32.7
06:45 1024 30.24 853 25.19 6.5 43.8 64 0.3 32.6
06:50 1024 30.24 853 25.19 6.9 44.4 63 0.4 32.8
06:55 1024 30.24 853 25.19 7.1 44.8 63 0.5 32.9
07:00 1024 30.24 853 25.19 7.2 44.9 62 0.4 32.6
07:05 1024 30.24 853 25.19 7.1 44.7 63 0.5 33
07:10 1024 30.24 853 25.19 6.8 44.2 64 0.6 33
07:15 1024 30.24 853 25.19 6.4 43.6 66 0.4 32.8
07:20 1024 30.24 853 25.19 6.3 43.3 66 0.4 32.7
07:25 1024 30.24 853 25.19 6.3 43.4 65 0.3 32.5
07:30 1024 30.24 853 25.19 6.3 43.4 65 0.3 32.5
07:35 1024 30.24 853 25.19 6.2 43.2 65 0.1 32.3
07:40 1024 30.24 853 25.19 6.4 43.5 65 0.3 32.5
07:45 1024 30.24 853 25.19 6.2 43.2 66 0.3 32.5
07:50 1024 30.24 853 25.19 5.4 41.6 68 -0.1 31.9
07:55 1024 30.24 853 25.19 5.4 41.8 65 -0.5 31
08:00 1024 30.24 853 25.19 6.2 43.2 62 -0.4 31.2
08:05 1024 30.24 853 25.19 6.2 43.2 65 0.1 32.2
08:10 1023 30.21 853 25.19 5.9 42.7 65 -0 31.9
08:15 1023 30.21 853 25.19 5.8 42.4 66 -0 32
08:20 1023 30.21 853 25.19 5.9 42.6 64 -0.3 31.5
08:25 1023 30.21 853 25.19 6.7 44 62 -0.1 31.8
08:30 1023 30.21 853 25.19 7.1 44.9 61 0.1 32.2
08:35 1023 30.21 853 25.19 7.6 45.7 59 0.1 32.1
08:40 1023 30.21 853 25.19 8 46.5 58 0.2 32.4
08:45 1023 30.21 852 25.16 8.2 46.7 57 0.1 32.2
08:50 1023 30.21 852 25.16 8.4 47.1 56 0.1 32.1
08:55 1023 30.21 852 25.16 8.9 47.9 54 0.2 32.3
09:00 1023 30.21 852 25.16 9.1 48.4 53 0.2 32.3
09:05 1023 30.21 852 25.16 9.1 48.3 55 0.5 33
09:10 1023 30.21 853 25.19 8.9 47.9 55 0.3 32.5
09:15 1023 30.21 853 25.19 8.7 47.7 57 0.8 33.4
09:20 1023 30.21 853 25.19 8.4 47.1 59 0.8 33.5
09:25 1023 30.21 853 25.19 8.2 46.8 59 0.8 33.4
09:30 1023 30.21 853 25.19 8.5 47.3 57 0.6 33
09:35 1023 30.21 853 25.19 8.5 47.2 59 0.9 33.6
09:40 1023 30.21 853 25.19 8.5 47.3 58 0.7 33.2
09:45 1023 30.21 853 25.19 8.9 48 57 0.8 33.4
09:50 1023 30.21 853 25.19 9.1 48.3 56 0.8 33.5
09:55 1023 30.21 853 25.19 9.6 49.2 54 0.6 33.2
10:00 1023 30.21 853 25.19 10 50 52 0.6 33.2
10:05 1023 30.21 853 25.19 10 50.1 52 0.6 33.1
10:10 1023 30.21 853 25.19 10.5 50.8 50 0.5 32.9
10:15 1023 30.21 852 25.16 10.2 50.3 52 0.8 33.4
10:20 1023 30.21 852 25.16 10.5 50.9 50 0.5 32.9
10:25 1023 30.21 852 25.16 11 51.8 51 1.2 34.2
10:30 1023 30.21 852 25.16 11 51.7 50 0.9 33.7
10:35 1023 30.21 852 25.16 11.7 53 49 1.3 34.4
10:40 1023 30.21 852 25.16 11.8 53.3 46 0.8 33.4
10:45 1023 30.21 852 25.16 12.1 53.7 47 1.1 33.9
10:50 1023 30.21 852 25.16 12.3 54.2 45 0.8 33.4
10:55 1023 30.21 852 25.16 12.8 55.1 47 1.9 35.5
11:00 1023 30.21 852 25.16 12.8 55 45 1.1 33.9
11:05 1023 30.21 852 25.16 13.4 56.1 42 0.7 33.3
11:10 1022 30.18 852 25.16 14.1 57.3 41 1 33.8
11:15 1022 30.18 851 25.13 14 57.1 41 1 33.8
11:20 1022 30.18 851 25.13 13.7 56.7 40 0.3 32.6
11:25 1022 30.18 851 25.13 14.4 57.9 40 0.9 33.7
11:30 1022 30.18 851 25.13 14.7 58.4 38 0.7 33.3
11:35 1022 30.18 851 25.13 15.1 59.2 37 0.8 33.4
11:40 1022 30.18 851 25.13 15.9 60.7 34 0.3 32.5
11:45 1022 30.18 851 25.13 16.6 61.9 34 0.9 33.6
11:50 1022 30.18 851 25.13 17 62.5 32 0.3 32.5
11:55 1022 30.18 851 25.13 17.3 63.2 33 1 33.7
12:00 1022 30.18 851 25.13 17.5 63.6 32 0.8 33.5
12:05 1021 30.15 851 25.13 17.2 63 37 2.3 36.2
12:10 1021 30.15 851 25.13 16.7 62.1 37 2.1 35.9
12:15 1021 30.15 851 25.13 16.7 62 38 2.4 36.2
12:20 1021 30.15 851 25.13 16.5 61.8 36 1.5 34.7
12:25 1021 30.15 850 25.1 17 62.6 36 2.1 35.8
12:30 1021 30.15 850 25.1 17.2 62.9 35 1.9 35.3
12:35 1021 30.15 850 25.1 17.3 63.2 35 2 35.7
12:40 1021 30.15 850 25.1 17.3 63.2 36 2.4 36.4
12:45 1021 30.15 850 25.1 16.9 62.5 36 1.9 35.4
12:50 1021 30.15 850 25.1 17.8 64 33 1.5 34.6
12:55 1021 30.15 850 25.1 18.1 64.6 33 1.9 35.4
13:00 1021 30.15 850 25.1 18.1 64.6 34 2 35.6
13:05 1021 30.15 850 25.1 18.2 64.7 35 2.7 36.9
13:10 1021 30.15 850 25.1 18.1 64.6 34 2.1 35.9
13:15 1021 30.15 850 25.1 18.6 65.6 33 2.1 35.7
13:20 1021 30.15 850 25.1 19.1 66.4 33 2.5 36.5
13:25 1020 30.12 850 25.1 18.9 66 32 2.1 35.8
13:30 1020 30.12 850 25.1 19.1 66.3 32 2 35.6
13:35 1020 30.12 849 25.07 19.3 66.8 33 2.7 36.8
13:40 1020 30.12 849 25.07 19.3 66.7 32 2.2 35.9
13:45 1020 30.12 849 25.07 19.4 67 31 2.1 35.7
13:50 1020 30.12 849 25.07 19.5 67 31 2.1 35.7
13:55 1020 30.12 849 25.07 19.7 67.5 31 2.3 36.1
14:00 1020 30.12 849 25.07 19.2 66.5 32 2.4 36.4
14:05 1020 30.12 849 25.07 18.5 65.3 33 2.1 35.8
14:10 1020 30.12 849 25.07 19.2 66.6 31 1.8 35.2
14:15 1019 30.09 849 25.07 20.1 68.1 30 2.1 35.7
14:20 1019 30.09 849 25.07 19.5 67.1 30 1.8 35.2
14:25 1019 30.09 849 25.07 19.8 67.7 29 1.6 34.9
14:30 1019 30.09 849 25.07 20.3 68.6 28 1.3 34.4
14:35 1019 30.09 848 25.04 20.4 68.7 27 0.9 33.6
14:40 1019 30.09 848 25.04 20.7 69.3 26 0.8 33.4
14:45 1019 30.09 848 25.04 21 69.8 26 0.9 33.7
14:50 1019 30.09 848 25.04 19.7 67.4 28 0.9 33.7
14:55 1019 30.09 848 25.04 20.3 68.6 27 0.9 33.6
15:00 1019 30.09 848 25.04 20.8 69.4 25 0.1 32.2
15:05 1019 30.09 848 25.04 21.3 70.3 25 0.8 33.5
15:10 1019 30.09 848 25.04 21.4 70.5 25 0.7 33.3
15:15 1019 30.09 848 25.04 20.8 69.5 25 0.5 32.9
15:20 1019 30.09 848 25.04 20.6 69.1 26 0.4 32.7
15:25 1019 30.09 848 25.04 21.2 70.1 24 0.2 32.3
15:30 1018 30.06 848 25.04 21.2 70.2 24 -0.2 31.6
15:35 1018 30.06 848 25.04 21.4 70.6 24 0.1 32.1
15:40 1018 30.06 847 25.01 22 71.6 23 -0.2 31.7
15:45 1018 30.06 847 25.01 22.1 71.9 23 0.3 32.5
15:50 1018 30.06 847 25.01 21.8 71.2 24 0.6 33
15:55 1018 30.06 847 25.01 21.3 70.3 24 -0.1 31.9
16:00 1018 30.06 847 25.01 21.1 70 24 -0.1 31.8
16:05 1018 30.06 847 25.01 21.2 70.1 24 -0.2 31.6
16:10 1018 30.06 847 25.01 21.6 70.9 23 -0.1 31.8
16:15 1018 30.06 847 25.01 21.6 70.8 23 -0.2 31.6
16:20 1018 30.06 847 25.01 21.6 70.8 23 -0.2 31.6
16:25 1017 30.03 847 25.01 21.5 70.7 24 0.2 32.3
16:30 1017 30.03 847 25.01 21.8 71.2 23 -0.3 31.5
16:35 1017 30.03 847 25.01 22.3 72.1 22 -0 31.9
16:40 1017 30.03 846 24.98 22.5 72.4 22 -0 31.9
16:45 1017 30.03 846 24.98 22.1 71.7 23 0.3 32.6
16:50 1017 30.03 846 24.98 22.2 71.9 24 0.8 33.5
16:55 1017 30.03 846 24.98 22.7 72.8 22 -0.2 31.7
17:00 1017 30.03 846 24.98 23.1 73.5 22 0.2 32.4
17:05 1017 30.03 846 24.98 23 73.4 22 0.1 32.2
17:10 1017 30.03 847 25.01 22.8 73 22 0.3 32.6
17:15 1017 30.03 847 25.01 22.4 72.2 23 0.2 32.3
17:20 1017 30.03 847 25.01 22.1 71.7 23 0.2 32.3
17:25 1017 30.03 847 25.01 21.8 71.2 24 0.3 32.6
17:30 1017 30.03 847 25.01 21.5 70.8 25 0.6 33.1
17:35 1017 30.03 846 24.98 21.1 69.9 25 0.4 32.8
17:40 1017 30.03 846 24.98 20.7 69.3 26 0.6 33.1
17:45 1017 30.03 846 24.98 20.6 69.1 26 0.4 32.7
17:50 1017 30.03 846 24.98 20.9 69.6 26 0.7 33.3
17:55 1017 30.03 846 24.98 21.1 69.9 25 0.4 32.8
18:00 1017 30.03 846 24.98 20.8 69.4 28 1.6 34.8
18:05 1017 30.03 846 24.98 19.7 67.5 33 3.2 37.8
18:10 1017 30.03 846 24.98 19.2 66.6 31 1.7 35.1
18:15 1017 30.03 846 24.98 18.8 65.8 31 1.4 34.6
18:20 1017 30.03 846 24.98 18.7 65.7 32 1.8 35.2
18:25 1017 30.03 846 24.98 18.6 65.4 32 1.5 34.8
18:30 1017 30.03 846 24.98 18.6 65.4 34 2.5 36.6
18:35 1017 30.03 846 24.98 18.2 64.8 35 2.4 36.4
18:40 1017 30.03 846 24.98 17.4 63.4 37 2.7 36.8
18:45 1017 30.03 846 24.98 16.7 62.1 40 3.3 37.9
18:50 1017 30.03 846 24.98 16 60.8 41 2.8 37.1
18:55 1017 30.03 846 24.98 15.6 60.1 41 2.6 36.7
19:00 1017 30.03 846 24.98 15.6 60.1 40 2.3 36.1
19:05 1017 30.03 846 24.98 15.4 59.7 41 2.2 35.9
19:10 1017 30.03 846 24.98 15.3 59.6 40 1.8 35.3
19:15 1017 30.03 846 24.98 14.8 58.6 44 2.6 36.7
19:20 1017 30.03 846 24.98 14.6 58.4 40 1.4 34.5
19:25 1017 30.03 846 24.98 15.2 59.3 33 -1 30.2
19:30 1017 30.03 846 24.98 15.1 59.2 37 0.7 33.3
19:35 1017 30.03 846 24.98 14.4 58 36 -0.3 31.4
19:40 1017 30.03 846 24.98 14 57.2 46 2.5 36.6
19:45 1017 30.03 846 24.98 12.9 55.2 44 0.9 33.6
19:50 1017 30.03 846 24.98 12.8 55 43 0.4 32.8
19:55 1017 30.03 846 24.98 13.2 55.7 40 -0.2 31.7
20:00 1017 30.03 846 24.98 13.5 56.4 39 -0.1 31.9
20:05 1017 30.03 846 24.98 13.6 56.5 39 0.1 32.1
20:10 1017 30.03 846 24.98 13.6 56.4 37 -0.8 30.5
20:15 1017 30.03 846 24.98 13.7 56.7 38 -0.4 31.3
20:20 1017 30.03 846 24.98 13.3 56 41 0.4 32.6
20:25 1017 30.03 846 24.98 12.8 55.1 42 0.2 32.4
20:30 1017 30.03 846 24.98 12.8 55 39 -0.6 30.9
20:35 1017 30.03 846 24.98 13.5 56.4 36 -1 30.2
20:40 1017 30.03 846 24.98 13.9 56.9 36 -0.8 30.6
20:45 1017 30.03 846 24.98 13.7 56.6 37 -0.6 30.9
20:50 1017 30.03 846 24.98 13.6 56.5 37 -0.7 30.7
20:55 1016 30 846 24.98 13.5 56.3 37 -1 30.2
21:00 1017 30.03 846 24.98 13.7 56.6 36 -0.9 30.4
21:05 1016 30 846 24.98 13.9 56.9 36 -0.9 30.3
21:10 1016 30 846 24.98 13.9 57 36 -1 30.3
21:15 1016 30 846 24.98 13.9 57 35 -1.2 29.9
21:20 1016 30 845 24.95 13.8 56.9 35 -1.1 29.9
21:25 1016 30 846 24.98 13.6 56.5 36 -1.2 29.9
21:30 1016 30 846 24.98 13.4 56.1 36 -1.5 29.4
21:35 1016 30 846 24.98 13.4 56.1 36 -1.5 29.4
21:40 1016 30 846 24.98 13.6 56.4 35 -1.4 29.4
21:45 1016 30 846 24.98 13.6 56.5 35 -1.6 29.2
21:50 1016 30 846 24.98 13.7 56.7 35 -1.4 29.5
21:55 1016 30 846 24.98 13.8 56.8 34 -1.6 29.2
22:00 1016 30 846 24.98 13.9 57 35 -1.4 29.4
22:05 1016 30 845 24.95 13.8 56.9 34 -1.6 29.1
22:10 1016 30 846 24.98 13.6 56.6 35 -1.4 29.4
22:15 1016 30 846 24.98 13.5 56.3 36 -1.3 29.6
22:20 1016 30 846 24.98 13.3 55.9 35 -1.8 28.8
22:25 1016 30 846 24.98 13.4 56.1 34 -1.9 28.6
22:30 1016 30 846 24.98 13.3 56 34 -2.3 27.9
22:35 1016 30 845 24.95 13.5 56.3 34 -2.2 28.1
22:40 1016 30 845 24.95 13.5 56.4 33 -2.2 28
22:45 1016 30 845 24.95 13 55.4 35 -2.1 28.2
22:50 1016 30 845 24.95 12.7 54.8 35 -2.2 28
22:55 1016 30 845 24.95 12.6 54.7 35 -2.2 28
23:00 1016 30 845 24.95 12.6 54.6 36 -2.1 28.3
23:05 1016 30 845 24.95 12.6 54.6 35 -2.3 27.9
23:10 1016 30 845 24.95 12.5 54.5 36 -2.1 28.2
23:15 1016 30 845 24.95 12.4 54.4 37 -1.9 28.5
23:20 1016 30 845 24.95 12.3 54.2 37 -1.8 28.7
23:25 1016 30 845 24.95 12.1 53.7 38 -1.7 28.9
23:30 1016 30 845 24.95 11.9 53.4 37 -2.1 28.1
23:35 1016 30 845 24.95 11.9 53.5 37 -2.4 27.7
23:40 1016 30 845 24.95 12.1 53.8 35 -2.8 26.9
23:45 1016 30 845 24.95 12.3 54.1 34 -2.9 26.7
23:50 1016 30 845 24.95 12.5 54.4 33 -3.2 26.2
23:55 1016 30 845 24.95 12.3 54.2 34 -3.2 26.2
24:00 1016 30 845 24.95 12.3 54.1 34 -3.2 26.3
00:05 1016 30 845 24.95 12.2 53.9 35 -2.9 26.8
00:10 1016 30 845 24.95 12.1 53.8 35 -2.8 26.9
00:15 1016 30 845 24.95 12 53.7 35 -2.9 26.9
00:20 1016 30 845 24.95 12 53.6 36 -2.6 27.3
00:25 1016 30 845 24.95 12 53.6 36 -2.7 27.1
00:30 1016 30 845 24.95 12.2 53.9 34 -3.1 26.4
00:35 1016 30 845 24.95 12.4 54.3 33 -3.2 26.3
00:40 1016 30 845 24.95 12.6 54.7 32 -3.4 25.8
00:45 1016 30 845 24.95 12.9 55.2 31 -3.6 25.5
00:50 1016 30 845 24.95 12.8 55 32 -3.4 26
00:55 1016 30 845 24.95 12.4 54.3 33 -3.3 26.1
01:00 1016 30 845 24.95 12.1 53.8 35 -3 26.6
01:05 1015 29.97 845 24.95 12.1 53.7 34 -3.1 26.4
01:10 1015 29.97 845 24.95 11.8 53.2 35 -3.1 26.4
01:15 1015 29.97 845 24.95 12.2 54 34 -3.2 26.2
01:20 1015 29.97 845 24.95 12.4 54.2 33 -3.3 26.1
01:25 1015 29.97 845 24.95 12.4 54.4 34 -3.1 26.5
01:30 1015 29.97 845 24.95 12.2 54 34 -2.9 26.8
01:35 1015 29.97 845 24.95 12.2 53.9 33 -3.4 25.9
01:40 1015 29.97 845 24.95 12.7 54.8 33 -3 26.6
01:45 1016 30 845 24.95 12.4 54.4 33 -3.3 26
01:50 1015 29.97 845 24.95 12.6 54.6 33 -3.1 26.4
01:55 1016 30 845 24.95 12.4 54.4 33 -3.4 25.9
02:00 1016 30 845 24.95 12.6 54.8 33 -3.1 26.3
02:05 1016 30 845 24.95 12.5 54.6 33 -3.1 26.5
02:10 1016 30 845 24.95 12.3 54.1 34 -3.1 26.3
02:15 1016 30 845 24.95 12.2 54 34 -3.1 26.4
02:20 1016 30 845 24.95 12.3 54.1 34 -2.9 26.8
02:25 1016 30 845 24.95 12 53.5 35 -2.9 26.8
02:30 1016 30 845 24.95 12.2 54 34 -3.3 26
02:35 1016 30 845 24.95 12.3 54.2 35 -2.5 27.5
02:40 1016 30 845 24.95 11.7 53 38 -2 28.4
02:45 1016 30 845 24.95 11.1 51.9 40 -1.9 28.6
02:50 1016 30 845 24.95 11.2 52.2 40 -1.9 28.6
02:55 1016 30 845 24.95 10.9 51.7 40 -2.2 28.1
03:00 1016 30 845 24.95 11.3 52.3 39 -2.3 27.9
03:05 1015 29.97 845 24.95 11.5 52.6 38 -2.2 28
03:10 1015 29.97 845 24.95 11.7 53 37 -2.6 27.4
03:15 1015 29.97 845 24.95 12.1 53.7 36 -2.3 27.8
03:20 1015 29.97 845 24.95 12 53.6 38 -2 28.4
03:25 1015 29.97 844 24.92 11.8 53.2 37 -2.2 28
03:30 1015 29.97 844 24.92 11.9 53.4 38 -1.8 28.8
03:35 1015 29.97 844 24.92 11.7 53.1 39 -1.9 28.6
03:40 1015 29.97 844 24.92 11.4 52.6 41 -1.3 29.6
03:45 1015 29.97 844 24.92 11.1 52 41 -1.6 29.2
03:50 1015 29.97 844 24.92 11.1 52.1 40 -2 28.4
03:55 1015 29.97 844 24.92 11.6 52.8 38 -2.2 28.1
04:00 1015 29.97 844 24.92 12.1 53.7 37 -2 28.4
04:05 1015 29.97 844 24.92 12.1 53.7 38 -1.7 29
04:10 1015 29.97 844 24.92 11.9 53.4 38 -2 28.4
04:15 1015 29.97 844 24.92 11.9 53.4 39 -1.5 29.4
04:20 1015 29.97 844 24.92 11.7 53.1 41 -1.1 30
04:25 1015 29.97 844 24.92 11.7 53.1 39 -1.6 29.2
04:30 1015 29.97 844 24.92 12 53.6 40 -1.2 29.8
04:35 1015 29.97 844 24.92 12.3 54.2 39 -1 30.1
04:40 1015 29.97 844 24.92 11.9 53.5 41 -1 30.3
04:45 1015 29.97 844 24.92 11.9 53.4 41 -0.9 30.5
04:50 1015 29.97 844 24.92 11.9 53.4 41 -0.9 30.4
04:55 1015 29.97 844 24.92 12.3 54.2 39 -1.2 29.8
05:00 1015 29.97 844 24.92 12.6 54.7 40 -0.6 30.9
05:05 1015 29.97 844 24.92 12.2 54 40 -0.8 30.6
05:10 1015 29.97 844 24.92 12.3 54.1 40 -0.7 30.7
05:15 1015 29.97 844 24.92 12.1 53.7 41 -0.6 30.8
05:20 1015 29.97 844 24.92 12 53.5 41 -0.8 30.5
05:25 1015 29.97 844 24.92 12.3 54.1 40 -0.8 30.5
05:30 1015 29.97 844 24.92 12.3 54.2 40 -0.9 30.3
05:35 1015 29.97 844 24.92 12.2 54 41 -0.5 31.1
05:40 1015 29.97 844 24.92 12 53.5 42 -0.4 31.3
05:45 1015 29.97 844 24.92 11.2 52.2 45 -0.2 31.6
05:50 1015 29.97 844 24.92 10.6 51.1 47 -0.2 31.7
05:55 1015 29.97 844 24.92 10.2 50.3 49 -0.1 31.8
06:00 1015 29.97 844 24.92 9.9 49.7 48 -0.5 31.1
06:05 1015 29.97 844 24.92 10.3 50.5 47 -0.6 30.9
06:10 1015 29.97 844 24.92 10.4 50.7 48 -0.2 31.7
06:15 1015 29.97 844 24.92 10.5 50.8 46 -0.8 30.6
06:20 1015 29.97 844 24.92 10.8 51.4 46 -0.2 31.6
06:25 1015 29.97 844 24.92 10.4 50.8 46 -0.7 30.7
06:30 1015 29.97 844 24.92 11.2 52.2 43 -0.9 30.5
06:35 1015 29.97 844 24.92 11.2 52.1 45 -0.3 31.4
06:40 1015 29.97 844 24.92 10.9 51.5 47 0.1 32.2
06:45 1015 29.97 844 24.92 10 50 50 0.2 32.4
06:50 1015 29.97 844 24.92 9.4 48.9 52 0.1 32.2
06:55 1015 29.97 844 24.92 9.1 48.5 53 0 32
07:00 1015 29.97 844 24.92 8.9 48.1 52 -0.4 31.2
07:05 1015 29.97 844 24.92 9.2 48.5 53 0.1 32.1
07:10 1015 29.97 844 24.92 9 48.2 53 -0.1 31.8
07:15 1015 29.97 844 24.92 9.3 48.8 52 0.1 32.2
07:20 1015 29.97 844 24.92 9.7 49.5 50 -0.2 31.6
07:25 1015 29.97 844 24.92 9.6 49.2 52 0.2 32.3
07:30 1015 29.97 844 24.92 9.6 49.3 50 -0.1 31.7
07:35 1015 29.97 844 24.92 9.4 48.9 53 0.4 32.6
07:40 1015 29.97 844 24.92 9 48.1 53 -0.1 31.8
07:45 1015 29.97 844 24.92 9.1 48.3 53 -0.1 31.9
07:50 1015 29.97 844 24.92 9.2 48.6 52 -0.1 31.9
07:55 1015 29.97 844 24.92 9.2 48.6 55 0.6 33
08:00 1015 29.97 844 24.92 8.9 48 56 0.5 33
08:05 1015 29.97 844 24.92 9 48.2 55 0.6 33
08:10 1015 29.97 844 24.92 9.3 48.8 51 -0.2 31.6
08:15 1015 29.97 844 24.92 10.1 50.2 49 0.1 32.1
08:20 1015 29.97 844 24.92 10.5 50.9 50 0.4 32.8
08:25 1015 29.97 844 24.92 10.5 50.9 50 0.5 33
08:30 1015 29.97 844 24.92 10.3 50.6 52 0.8 33.5
08:35 1015 29.97 844 24.92 9.7 49.5 54 1 33.8
08:40 1015 29.97 845 24.95 9.2 48.5 53 0.1 32.2
08:45 1015 29.97 845 24.95 9.6 49.2 52 0.4 32.6
08:50 1015 29.97 845 24.95 9.6 49.3 53 0.5 33
08:55 1015 29.97 845 24.95 9.6 49.3 52 0.2 32.4
09:00 1015 29.97 845 24.95 10.2 50.4 49 0.1 32.2
09:05 1016 30 845 24.95 10.6 51.1 49 0.4 32.8
09:10 1016 30 845 24.95 10.5 50.9 49 0.4 32.8
09:15 1015 29.97 845 24.95 10.5 50.8 50 0.4 32.8
09:20 1015 29.97 845 24.95 10.5 50.9 50 0.7 33.2
09:25 1016 30 845 24.95 10.9 51.6 48 0.2 32.4
09:30 1016 30 845 24.95 11.2 52.2 48 0.8 33.4
09:35 1015 29.97 845 24.95 11.3 52.4 49 1 33.7
09:40 1015 29.97 845 24.95 11.5 52.7 45 -0.1 31.9
09:45 1016 30 845 24.95 12.1 53.8 44 0.4 32.7
09:50 1016 30 845 24.95 12.3 54.1 43 0.3 32.5
09:55 1016 30 845 24.95 12.9 55.1 41 0.1 32.1
10:00 1016 30 845 24.95 13.1 55.5 42 0.6 33.1
10:05 1016 30 845 24.95 13.1 55.6 42 0.4 32.8
10:10 1016 30 845 24.95 13.4 56.1 41 0.7 33.2
10:15 1016 30 845 24.95 13.3 56 44 1.3 34.3
10:20 1016 30 845 24.95 13.6 56.5 42 1.2 34.1
10:25 1016 30 845 24.95 14.2 57.5 40 0.7 33.2
10:30 1016 30 845 24.95 15.2 59.3 37 0.6 33.1
10:35 1016 30 845 24.95 15.9 60.7 35 0.7 33.3
10:40 1016 30 845 24.95 16.4 61.4 35 0.9 33.6
10:45 1016 30 845 24.95 16.3 61.4 34 0.6 33
10:50 1016 30 845 24.95 16.5 61.7 34 0.7 33.2
10:55 1016 30 845 24.95 16.9 62.5 33 0.6 33.2
11:00 1016 30 845 24.95 16.9 62.4 33 0.6 33.1
11:05 1016 30 845 24.95 17.2 63 33 0.8 33.5
11:10 1016 30 845 24.95 17.1 62.8 32 0.4 32.7
11:15 1016 30 845 24.95 16.9 62.4 32 0.4 32.7
11:20 1016 30 845 24.95 16.8 62.2 33 0.3 32.6
11:25 1016 30 845 24.95 17.2 62.9 32 0.6 33
11:30 1016 30 845 24.95 17.4 63.3 32 0.5 32.8
11:35 1016 30 845 24.95 17.4 63.2 32 0.6 33.2
11:40 1016 30 845 24.95 17.2 62.9 33 0.7 33.2
11:45 1016 30 845 24.95 17.4 63.3 33 1.3 34.3
11:50 1016 30 845 24.95 17.8 64.1 31 0.8 33.4
11:55 1016 30 845 24.95 17.9 64.3 31 0.9 33.6
12:00 1016 30 845 24.95 18 64.4 31 0.7 33.3
12:05 1016 30 845 24.95 18.1 64.5 30 0.5 32.9
12:10 1016 30 845 24.95 18.7 65.7 30 0.8 33.4
12:15 1016 30 845 24.95 18.4 65.2 30 0.9 33.6
12:20 1016 30 845 24.95 18.4 65 30 0.6 33.1
12:25 1016 30 845 24.95 18.7 65.6 30 0.9 33.6
12:30 1015 29.97 845 24.95 18.4 65.1 32 1.4 34.5
12:35 1015 29.97 845 24.95 18.3 64.9 30 0.6 33.1
12:40 1015 29.97 845 24.95 18.2 64.8 31 1.1 33.9
12:45 1015 29.97 844 24.92 17.7 63.9 32 1 33.9
12:50 1015 29.97 844 24.92 17.9 64.3 32 1.1 33.9
12:55 1015 29.97 844 24.92 18.7 65.6 29 0.5 32.9
13:00 1015 29.97 844 24.92 19.6 67.3 29 1.3 34.4
13:05 1015 29.97 844 24.92 19.5 67 29 1.3 34.3
13:10 1015 29.97 844 24.92 18.9 66.1 31 1.6 34.8
13:15 1015 29.97 844 24.92 18.4 65 32 1.6 34.8
13:20 1015 29.97 844 24.92 17.8 64 33 1.4 34.4
13:25 1015 29.97 844 24.92 18 64.4 33 1.7 35.1
13:30 1015 29.97 844 24.92 18 64.5 36 2.7 36.9
13:35 1015 29.97 844 24.92 17.5 63.4 36 2.5 36.5
13:40 1015 29.97 844 24.92 17.3 63.2 35 2 35.6
13:45 1015 29.97 844 24.92 17.6 63.8 35 2 35.6
13:50 1015 29.97 844 24.92 18 64.3 34 2.2 35.9
13:55 1015 29.97 844 24.92 17.7 63.8 35 2.1 35.8
14:00 1015 29.97 844 24.92 17.8 64 36 2.6 36.6
14:05 1015 29.97 844 24.92 17.5 63.4 36 2.3 36.1
14:10 1015 29.97 844 24.92 17.3 63.2 35 1.8 35.2
14:15 1015 29.97 844 24.92 17.5 63.4 33 1.3 34.3
14:20 1015 29.97 844 24.92 17.2 63 34 1.4 34.6
14:25 1015 29.97 844 24.92 17.3 63.1 35 1.6 35
14:30 1015 29.97 844 24.92 17.5 63.4 34 1.6 34.8
14:35 1015 29.97 844 24.92 17.5 63.6 35 2 35.7
14:40 1015 29.97 844 24.92 17.6 63.6 34 1.6 34.8
14:45 1015 29.97 844 24.92 17.7 63.8 34 1.7 35.1
14:50 1015 29.97 844 24.92 18 64.5 33 1.8 35.2
14:55 1015 29.97 844 24.92 17.9 64.2 34 1.9 35.4
15:00 1015 29.97 844 24.92 17.6 63.7 36 2.5 36.4
15:05 1015 29.97 844 24.92 18 64.3 33 1.8 35.2
15:10 1015 29.97 844 24.92 18.1 64.5 32 1.5 34.6
15:15 1015 29.97 844 24.92 18.9 66.1 31 1.7 35
15:20 1015 29.97 844 24.92 19.1 66.4 32 2.3 36.1
15:25 1015 29.97 844 24.92 18.3 64.9 35 2.6 36.7
15:30 1015 29.97 844 24.92 18.2 64.7 35 2.5 36.4
15:35 1015 29.97 844 24.92 17.9 64.2 34 1.7 35.1
15:40 1014 29.94 844 24.92 18.2 64.7 33 1.8 35.2
15:45 1014 29.94 844 24.92 17.8 64 36 2.5 36.4
15:50 1014 29.94 844 24.92 17.4 63.3 35 2.1 35.8
15:55 1014 29.94 844 24.92 17.8 64 35 2.1 35.7
16:00 1014 29.94 844 24.92 17.9 64.3 34 1.9 35.5
16:05 1014 29.94 844 24.92 17.8 64.1 35 2.2 36
16:10 1014 29.94 844 24.92 17.5 63.4 36 2.3 36.2
16:15 1014 29.94 844 24.92 17.1 62.7 37 2.4 36.3
16:20 1014 29.94 844 24.92 16.8 62.2 38 2.4 36.4
16:25 1015 29.97 844 24.92 16.6 61.8 38 2.2 36
16:30 1015 29.97 844 24.92 16.4 61.5 38 2.2 35.9
16:35 1015 29.97 844 24.92 16.5 61.7 39 2.8 37
16:40 1015 29.97 844 24.92 16.5 61.6 39 2.6 36.8
16:45 1015 29.97 844 24.92 16.4 61.5 39 2.5 36.4
16:50 1015 29.97 844 24.92 16.3 61.4 39 2.5 36.4
16:55 1015 29.97 844 24.92 16.3 61.3 39 2.5 36.6
17:00 1015 29.97 844 24.92 16.3 61.4 42 3.6 38.4
17:05 1014 29.94 844 24.92 16.4 61.5 40 2.9 37.3
17:10 1015 29.97 844 24.92 16.3 61.3 38 2 35.6
17:15 1015 29.97 844 24.92 16.2 61.2 38 2 35.7
17:20 1014 29.94 844 24.92 16.4 61.4 41 3.2 37.8
17:25 1014 29.94 843 24.89 16.2 61.2 38 1.9 35.4
17:30 1014 29.94 843 24.89 16.4 61.4 38 2.1 35.7
17:35 1014 29.94 843 24.89 16.1 60.9 38 1.8 35.3
17:40 1014 29.94 843 24.89 16 60.7 37 1.6 34.8
17:45 1014 29.94 844 24.92 15.9 60.7 39 2.2 36
17:50 1014 29.94 843 24.89 15.7 60.2 40 2.2 36
17:55 1014 29.94 843 24.89 15.6 60.1 41 2.4 36.3
18:00 1014 29.94 843 24.89 15.5 59.9 41 2.4 36.3
18:05 1014 29.94 843 24.89 15.4 59.7 41 2.4 36.4
18:10 1014 29.94 843 24.89 15.4 59.6 41 2.3 36.2
18:15 1014 29.94 843 24.89 15.3 59.6 44 3.2 37.7
18:20 1014 29.94 843 24.89 15 59.1 42 2.3 36.2
18:25 1014 29.94 843 24.89 15.1 59.2 44 3.2 37.7
18:30 1014 29.94 843 24.89 14.7 58.5 48 4 39.2
18:35 1014 29.94 843 24.89 14.7 58.4 45 2.8 37
18:40 1014 29.94 844 24.92 14.7 58.4 45 3 37.4
18:45 1014 29.94 843 24.89 14.6 58.2 46 3.1 37.6
18:50 1014 29.94 843 24.89 14.5 58.1 47 3.3 38
18:55 1014 29.94 843 24.89 14.4 58 47 3.4 38.1
19:00 1014 29.94 843 24.89 14.3 57.8 48 3.4 38.2
19:05 1014 29.94 843 24.89 14.2 57.6 48 3.5 38.2
19:10 1014 29.94 844 24.92 14.1 57.4 49 3.5 38.3
19:15 1014 29.94 844 24.92 14 57.2 49 3.7 38.6
19:20 1014 29.94 844 24.92 13.8 56.8 50 3.7 38.6
19:25 1014 29.94 844 24.92 13.6 56.4 51 3.7 38.7
19:30 1015 29.97 844 24.92 13.3 55.9 52 3.7 38.6
19:35 1015 29.97 844 24.92 13.3 56 51 3.4 38
19:40 1015 29.97 844 24.92 13.3 56 50 3.2 37.8
19:45 1015 29.97 844 24.92 13.1 55.6 51 3.3 38
19:50 1015 29.97 844 24.92 13 55.5 52 3.4 38
19:55 1015 29.97 844 24.92 13 55.3 52 3.3 38
20:00 1015 29.97 844 24.92 13 55.3 52 3.4 38.1
20:05 1015 29.97 844 24.92 12.9 55.1 52 3.4 38
20:10 1015 29.97 844 24.92 12.8 55 53 3.5 38.2
20:15 1015 29.97 844 24.92 12.6 54.8 54 3.7 38.6
20:20 1015 29.97 844 24.92 12.5 54.5 55 3.7 38.6
20:25 1015 29.97 844 24.92 12.4 54.3 55 3.6 38.5
20:30 1015 29.97 844 24.92 12.4 54.3 55 3.8 38.8
20:35 1015 29.97 844 24.92 12.2 54 57 3.9 39
20:40 1015 29.97 844 24.92 12.1 53.7 57 4 39.2
20:45 1015 29.97 844 24.92 11.9 53.4 59 4.2 39.6
20:50 1015 29.97 844 24.92 11.8 53.3 60 4.4 39.9
20:55 1015 29.97 844 24.92 11.6 52.8 61 4.4 39.9
21:00 1015 29.97 844 24.92 11.5 52.7 63 4.7 40.4
21:05 1015 29.97 844 24.92 11.3 52.4 65 4.9 40.9
21:10 1014 29.94 844 24.92 11.1 52.1 66 5 41
21:15 1014 29.94 843 24.89 11 51.9 66 5 40.9
21:20 1014 29.94 843 24.89 10.9 51.6 67 5.1 41.1
21:25 1014 29.94 843 24.89 10.7 51.3 68 5.1 41.1
21:30 1014 29.94 843 24.89 10.6 51.1 68 5.1 41.1
21:35 1014 29.94 843 24.89 10.5 51 69 5.2 41.3
21:40 1014 29.94 843 24.89 10.5 50.8 70 5.2 41.4
21:45 1014 29.94 844 24.92 10.3 50.6 71 5.3 41.5
21:50 1014 29.94 844 24.92 10.2 50.3 72 5.3 41.6
21:55 1014 29.94 844 24.92 10 50.1 73 5.4 41.7
22:00 1015 29.97 844 24.92 10.1 50.1 73 5.5 41.9
22:05 1015 29.97 844 24.92 10.1 50.1 74 5.6 42.2
22:10 1014 29.94 844 24.92 10 50 74 5.7 42.2
22:15 1014 29.94 844 24.92 9.9 49.8 75 5.8 42.4
22:20 1014 29.94 844 24.92 9.8 49.7 76 5.8 42.5
22:25 1014 29.94 844 24.92 9.7 49.4 77 5.9 42.6
22:30 1014 29.94 844 24.92 9.7 49.4 78 5.9 42.7
22:35 1014 29.94 844 24.92 9.6 49.3 78 6 42.7
22:40 1014 29.94 844 24.92 9.5 49.2 79 6.1 42.9
22:45 1014 29.94 844 24.92 9.5 49 79 6 42.8
22:50 1014 29.94 844 24.92 9.5 49 79 6 42.9
22:55 1014 29.94 844 24.92 9.5 49.1 79 6.2 43.1
23:00 1014 29.94 844 24.92 9.4 49 80 6.2 43.1
23:05 1014 29.94 844 24.92 9.4 48.9 80 6.1 43.1
23:10 1014 29.94 844 24.92 9.4 48.9 80 6.2 43.1
23:15 1014 29.94 844 24.92 9.3 48.7 81 6.2 43.1
23:20 1014 29.94 844 24.92 9.3 48.7 81 6.1 43
23:25 1014 29.94 844 24.92 9.3 48.7 81 6.2 43.1
23:30 1015 29.97 844 24.92 9.2 48.6 81 6.2 43.1
23:35 1015 29.97 844 24.92 9.2 48.6 81 6 42.9
23:40 1015 29.97 844 24.92 9.2 48.6 81 6.1 42.9
23:45 1014 29.94 844 24.92 9.1 48.5 81 6 42.9
23:50 1014 29.94 844 24.92 9.2 48.5 80 6 42.7
23:55 1014 29.94 843 24.89 9.2 48.5 80 6 42.8
24:00 1014 29.94 843 24.89 9.1 48.4 81 6 42.9
00:05 1014 29.94 843 24.89 9.1 48.3 82 6.1 43.1
00:10 1014 29.94 843 24.89 9 48.1 82 6.1 43
00:15 1014 29.94 844 24.92 9 48.2 82 6.1 42.9
00:20 1014 29.94 844 24.92 8.9 48 82 6 42.9
00:25 1014 29.94 844 24.92 8.8 47.8 83 6 42.8
00:30 1014 29.94 843 24.89 8.8 47.8 83 6 42.9
00:35 1014 29.94 843 24.89 8.7 47.7 83 6.1 42.9
00:40 1014 29.94 843 24.89 8.6 47.5 84 6.1 43
00:45 1014 29.94 843 24.89 8.5 47.3 85 6.1 43
00:50 1014 29.94 843 24.89 8.4 47.1 85 6 42.8
00:55 1014 29.94 843 24.89 8.3 46.9 84 5.8 42.4
01:00 1013 29.91 843 24.89 8.3 46.9 84 5.7 42.2
01:05 1013 29.91 843 24.89 8.3 46.9 83 5.6 42
01:10 1013 29.91 843 24.89 8.2 46.8 83 5.5 41.9
01:15 1013 29.91 843 24.89 8.1 46.6 83 5.3 41.6
01:20 1013 29.91 842 24.86 7.9 46.3 83 5.2 41.4
01:25 1013 29.91 842 24.86 7.8 46.1 83 5.1 41.2
01:30 1013 29.91 842 24.86 7.8 46 82 5 41
01:35 1013 29.91 842 24.86 7.8 46.1 82 5 41
01:40 1013 29.91 842 24.86 7.8 46 81 4.8 40.6
01:45 1013 29.91 842 24.86 7.7 45.9 80 4.6 40.2
01:50 1013 29.91 842 24.86 7.7 45.8 79 4.3 39.8
01:55 1013 29.91 842 24.86 7.7 45.8 79 4.2 39.6
02:00 1013 29.91 842 24.86 7.6 45.7 80 4.4 39.9
02:05 1013 29.91 842 24.86 7.6 45.6 81 4.6 40.3
02:10 1013 29.91 842 24.86 7.6 45.6 81 4.6 40.2
02:15 1013 29.91 842 24.86 7.5 45.6 81 4.5 40.1
02:20 1013 29.91 842 24.86 7.5 45.6 81 4.5 40.1
02:25 1013 29.91 842 24.86 7.5 45.5 82 4.7 40.4
02:30 1013 29.91 842 24.86 7.5 45.6 82 4.7 40.5
02:35 1013 29.91 842 24.86 7.5 45.4 82 4.6 40.2
02:40 1013 29.91 842 24.86 7.4 45.4 82 4.5 40.1
02:45 1013 29.91 842 24.86 7.4 45.2 81 4.4 39.9
02:50 1013 29.91 843 24.89 7.4 45.3 82 4.4 40
02:55 1013 29.91 843 24.89 7.4 45.3 81 4.3 39.8
03:00 1013 29.91 843 24.89 7.3 45.1 81 4.2 39.5
03:05 1013 29.91 843 24.89 7.3 45.1 80 4.1 39.4
03:10 1013 29.91 842 24.86 7.2 45 80 4 39.3
03:15 1013 29.91 842 24.86 7.1 44.8 80 3.9 39
03:20 1013 29.91 842 24.86 7.1 44.7 80 3.8 38.8
03:25 1013 29.91 842 24.86 7 44.6 78 3.5 38.3
03:30 1013 29.91 842 24.86 6.9 44.5 78 3.4 38.1
03:35 1013 29.91 842 24.86 6.9 44.4 78 3.3 38
03:40 1013 29.91 842 24.86 6.9 44.5 78 3.4 38
03:45 1013 29.91 842 24.86 6.9 44.5 78 3.3 38
03:50 1013 29.91 842 24.86 6.9 44.4 77 3.2 37.8
03:55 1013 29.91 842 24.86 6.8 44.3 78 3.2 37.7
04:00 1013 29.91 842 24.86 6.7 44.1 78 3.1 37.6
04:05 1013 29.91 842 24.86 6.7 44 78 3.1 37.5
04:10 1013 29.91 842 24.86 6.6 43.9 78 3 37.5
04:15 1013 29.91 842 24.86 6.6 43.9 78 3 37.4
04:20 1013 29.91 842 24.86 6.6 43.9 78 3 37.3
04:25 1013 29.91 842 24.86 6.6 43.9 77 2.9 37.2
04:30 1013 29.91 842 24.86 6.6 43.9 77 3 37.3
04:35 1013 29.91 842 24.86 6.6 43.9 78 3 37.4
04:40 1013 29.91 842 24.86 6.6 43.9 78 3.1 37.5
04:45 1013 29.91 842 24.86 6.6 44 78 3.1 37.5
04:50 1013 29.91 842 24.86 6.6 43.9 78 3.1 37.6
04:55 1013 29.91 842 24.86 6.5 43.7 79 3.1 37.6
05:00 1013 29.91 842 24.86 6.5 43.6 79 3.2 37.7
05:05 1013 29.91 842 24.86 6.4 43.5 81 3.3 38
05:10 1013 29.91 842 24.86 6.3 43.3 81 3.3 37.9
05:15 1013 29.91 842 24.86 6.2 43.2 82 3.3 37.9
05:20 1013 29.91 842 24.86 6.1 43 83 3.4 38.1
05:25 1013 29.91 842 24.86 6 42.8 85 3.7 38.6
05:30 1013 29.91 842 24.86 5.8 42.5 85 3.6 38.4
05:35 1013 29.91 842 24.86 5.7 42.3 87 3.7 38.6
05:40 1013 29.91 842 24.86 5.6 42 87 3.6 38.6
05:45 1013 29.91 842 24.86 5.5 41.9 88 3.7 38.6
05:50 1013 29.91 842 24.86 5.4 41.8 88 3.5 38.3
05:55 1012 29.88 842 24.86 5.4 41.7 88 3.6 38.5
06:00 1012 29.88 841 24.83 5.4 41.6 88 3.5 38.3
06:05 1012 29.88 841 24.83 5.3 41.6 88 3.4 38.2
06:10 1012 29.88 841 24.83 5.4 41.7 87 3.4 38.1
06:15 1012 29.88 841 24.83 5.5 41.9 86 3.3 37.9
06:20 1012 29.88 841 24.83 5.5 41.9 85 3.2 37.7
06:25 1012 29.88 841 24.83 5.5 41.9 86 3.3 38
06:30 1012 29.88 841 24.83 5.5 41.8 86 3.3 37.9
06:35 1011 29.85 841 24.83 5.5 41.9 83 2.9 37.3
06:40 1011 29.85 841 24.83 5.5 41.9 83 2.9 37.3
06:45 1011 29.85 841 24.83 5.6 42 84 3 37.4
06:50 1011 29.85 841 24.83 5.5 42 83 2.9 37.2
06:55 1011 29.85 841 24.83 5.5 41.9 83 2.8 37.1
07:00 1012 29.88 841 24.83 5.4 41.8 84 2.9 37.2
07:05 1012 29.88 841 24.83 5.4 41.8 83 2.8 37
07:10 1012 29.88 841 24.83 5.5 41.9 83 2.8 37
07:15 1012 29.88 841 24.83 5.5 41.8 82 2.7 36.8
07:20 1012 29.88 841 24.83 5.5 41.8 82 2.7 36.8
07:25 1012 29.88 841 24.83 5.4 41.8 83 2.7 36.9
07:30 1012 29.88 841 24.83 5.4 41.7 84 2.9 37.2
07:35 1012 29.88 841 24.83 5.3 41.6 84 2.9 37.2
07:40 1012 29.88 841 24.83 5.3 41.5 85 3 37.4
07:45 1012 29.88 841 24.83 5.2 41.3 86 3 37.5
07:50 1012 29.88 841 24.83 5.1 41.2 86 2.9 37.3
07:55 1012 29.88 841 24.83 5.1 41.1 86 3 37.3
08:00 1012 29.88 841 24.83 5 41 86 2.9 37.3
08:05 1012 29.88 841 24.83 5 40.9 87 2.9 37.3
08:10 1012 29.88 841 24.83 5 40.9 86 2.8 37
08:15 1012 29.88 841 24.83 5 41 85 2.7 36.9
08:20 1012 29.88 841 24.83 5 40.9 85 2.7 36.9
08:25 1012 29.88 841 24.83 5 41 85 2.7 36.8
08:30 1012 29.88 841 24.83 5 41 84 2.5 36.6
08:35 1012 29.88 841 24.83 5.1 41.1 83 2.5 36.5
08:40 1012 29.88 841 24.83 5.1 41.1 83 2.5 36.4
08:45 1012 29.88 841 24.83 5.1 41.2 83 2.4 36.3
08:50 1011 29.85 841 24.83 5.1 41.2 83 2.4 36.4
08:55 1011 29.85 841 24.83 5.1 41.2 82 2.4 36.3
09:00 1011 29.85 840 24.81 5.1 41.2 83 2.4 36.3
09:05 1011 29.85 840 24.81 5.1 41.1 82 2.3 36.2
09:10 1011 29.85 840 24.81 5.1 41.1 83 2.4 36.2
09:15 1011 29.85 840 24.81 5.1 41.1 82 2.3 36.2
09:20 1011 29.85 840 24.81 5.1 41.1 83 2.4 36.4
09:25 1011 29.85 840 24.81 5.1 41.1 83 2.3 36.2
09:30 1011 29.85 840 24.81 5 41.1 82 2.3 36.1
09:35 1011 29.85 840 24.81 5 41.1 83 2.5 36.4
09:40 1011 29.85 840 24.81 5.1 41.1 83 2.4 36.3
09:45 1011 29.85 840 24.81 5.1 41.1 83 2.4 36.3
09:50 1011 29.85 840 24.81 5.1 41.2 82 2.4 36.3
09:55 1011 29.85 840 24.81 5.1 41.2 83 2.5 36.4
10:00 1011 29.85 840 24.81 5.1 41.1 83 2.4 36.4
10:05 1011 29.85 840 24.81 5.1 41.1 83 2.4 36.3
10:10 1011 29.85 840 24.81 5 41 83 2.4 36.3
10:15 1011 29.85 840 24.81 5 41.1 83 2.4 36.3
10:20 1011 29.85 840 24.81 5 41 83 2.4 36.3
10:25 1011 29.85 840 24.81 5 41 82 2.2 36
10:30 1011 29.85 840 24.81 5.1 41.1 82 2.3 36.1
10:35 1011 29.85 840 24.81 5.1 41.1 82 2.2 36
10:40 1011 29.85 840 24.81 5.1 41.2 83 2.4 36.4
10:45 1011 29.85 840 24.81 5 41.1 84 2.5 36.5
10:50 1011 29.85 840 24.81 4.9 40.9 85 2.7 36.8
10:55 1011 29.85 840 24.81 4.8 40.7 86 2.8 37
11:00 1011 29.85 840 24.81 4.8 40.6 86 2.7 36.8
11:05 1011 29.85 840 24.81 4.7 40.5 88 2.9 37.1
11:10 1011 29.85 840 24.81 4.7 40.5 87 2.8 37
11:15 1011 29.85 840 24.81 4.8 40.6 88 2.9 37.3
11:20 1011 29.85 840 24.81 4.8 40.6 88 2.9 37.3
11:25 1011 29.85 840 24.81 4.8 40.6 88 2.9 37.3
11:30 1011 29.85 840 24.81 4.8 40.7 87 2.9 37.2
11:35 1011 29.85 840 24.81 4.9 40.7 87 2.9 37.2
11:40 1011 29.85 840 24.81 4.8 40.7 88 3 37.4
11:45 1011 29.85 840 24.81 4.8 40.6 88 2.9 37.3
11:50 1011 29.85 840 24.81 4.8 40.6 89 3.1 37.6
11:55 1011 29.85 840 24.81 4.7 40.5 90 3.2 37.7
12:00 1011 29.85 840 24.81 4.7 40.4 90 3.2 37.7
12:05 1011 29.85 840 24.81 4.7 40.4 90 3.2 37.7
12:10 1011 29.85 840 24.81 4.7 40.4 89 3.1 37.5
12:15 1011 29.85 840 24.81 4.7 40.5 90 3.3 37.9
12:20 1011 29.85 840 24.81 4.7 40.4 91 3.3 38
12:25 1011 29.85 840 24.81 4.7 40.4 90 3.2 37.7
12:30 1011 29.85 840 24.81 4.7 40.4 90 3.2 37.8
12:35 1011 29.85 840 24.81 4.7 40.5 90 3.3 37.9
12:40 1011 29.85 840 24.81 4.8 40.6 90 3.3 38
12:45 1011 29.85 840 24.81 4.7 40.5 92 3.5 38.2
12:50 1011 29.85 840 24.81 4.8 40.6 91 3.5 38.3
12:55 1011 29.85 840 24.81 4.7 40.5 91 3.5 38.2
13:00 1011 29.85 840 24.81 4.8 40.6 93 3.7 38.6
13:05 1011 29.85 840 24.81 4.8 40.7 92 3.7 38.6
13:10 1011 29.85 840 24.81 4.8 40.7 93 3.7 38.7
13:15 1011 29.85 840 24.81 4.9 40.9 92 3.7 38.7
13:20 1011 29.85 840 24.81 4.9 40.8 92 3.8 38.8
13:25 1011 29.85 840 24.81 4.9 40.8 92 3.7 38.7
13:30 1011 29.85 840 24.81 4.9 40.9 92 3.8 38.8
13:35 1011 29.85 840 24.81 4.9 40.9 93 3.9 39
13:40 1011 29.85 840 24.81 5 40.9 93 4 39.2
13:45 1011 29.85 840 24.81 5 41 93 4 39.2
13:50 1011 29.85 840 24.81 5.1 41.2 93 4.1 39.3
13:55 1011 29.85 840 24.81 5.3 41.5 92 4 39.2
14:00 1011 29.85 840 24.81 5.4 41.7 92 4.1 39.4
14:05 1011 29.85 841 24.83 5.3 41.6 92 4.1 39.3
14:10 1011 29.85 841 24.83 5.2 41.4 92 4 39.3
14:15 1011 29.85 841 24.83 5.1 41.2 93 4 39.2
14:20 1011 29.85 841 24.83 5.1 41.1 93 4 39.2
14:25 1011 29.85 841 24.83 5 41 92 3.9 39
14:30 1011 29.85 841 24.83 4.9 40.9 92 3.8 38.8
14:35 1012 29.88 841 24.83 4.8 40.7 92 3.6 38.5
14:40 1012 29.88 841 24.83 4.7 40.4 91 3.4 38.1
14:45 1012 29.88 841 24.83 4.6 40.3 93 3.5 38.3
14:50 1012 29.88 841 24.83 4.6 40.3 92 3.4 38.1
14:55 1012 29.88 841 24.83 4.5 40.1 93 3.4 38.1
15:00 1012 29.88 841 24.83 4.4 39.8 93 3.3 38
15:05 1012 29.88 841 24.83 4.3 39.8 93 3.3 38
15:10 1012 29.88 841 24.83 4.2 39.6 92 3.1 37.6
15:15 1012 29.88 841 24.83 4.1 39.4 92 3 37.4
15:20 1012 29.88 841 24.83 4.1 39.3 93 2.9 37.3
15:25 1012 29.88 841 24.83 4 39.2 92 2.9 37.2
15:30 1012 29.88 841 24.83 3.9 39.1 92 2.8 37.1
15:35 1012 29.88 841 24.83 3.9 39.1 92 2.8 37.1
15:40 1012 29.88 841 24.83 3.8 38.9 92 2.7 36.8
15:45 1012 29.88 842 24.86 3.9 39 93 2.8 37.1
15:50 1012 29.88 842 24.86 3.9 39 92 2.7 36.8
15:55 1012 29.88 842 24.86 3.9 39 92 2.7 36.9
16:00 1012 29.88 842 24.86 3.9 39 92 2.6 36.7
16:05 1013 29.91 842 24.86 3.9 38.9 91 2.6 36.6
16:10 1013 29.91 842 24.86 3.7 38.6 92 2.4 36.4
16:15 1013 29.91 842 24.86 3.5 38.3 92 2.3 36.1
16:20 1013 29.91 842 24.86 3.4 38.2 92 2.3 36.1
16:25 1013 29.91 842 24.86 3.5 38.4 91 2.3 36.1
16:30 1013 29.91 842 24.86 3.6 38.5 91 2.3 36.1
16:35 1013 29.91 842 24.86 3.6 38.6 91 2.3 36.2
16:40 1013 29.91 842 24.86 3.5 38.2 91 2.1 35.9
16:45 1013 29.91 842 24.86 3.4 38 91 2 35.6
16:50 1013 29.91 842 24.86 3.3 37.9 91 1.9 35.4
16:55 1013 29.91 842 24.86 3.2 37.7 91 1.9 35.4
17:00 1013 29.91 842 24.86 3.1 37.7 92 2 35.5
17:05 1013 29.91 842 24.86 3.2 37.8 92 2.1 35.8
17:10 1013 29.91 843 24.89 3.3 37.9 92 2 35.6
17:15 1013 29.91 843 24.89 3.3 37.9 92 2.1 35.8
17:20 1013 29.91 843 24.89 3.3 38 92 2.2 36
17:25 1013 29.91 843 24.89 3.2 37.8 92 2 35.7
17:30 1013 29.91 843 24.89 3.2 37.7 91 1.9 35.4
17:35 1013 29.91 843 24.89 3.2 37.7 92 2 35.5
17:40 1013 29.91 843 24.89 3.2 37.8 92 2.1 35.7
17:45 1013 29.91 843 24.89 3.2 37.8 93 2.1 35.8
17:50 1013 29.91 843 24.89 3.2 37.7 93 2.1 35.9
17:55 1013 29.91 843 24.89 3.2 37.7 92 2.1 35.7
18:00 1013 29.91 843 24.89 3.2 37.7 92 2 35.5
18:05 1014 29.94 843 24.89 3.2 37.8 92 2.1 35.7
18:10 1014 29.94 843 24.89 3.3 38 92 2.2 36
18:15 1014 29.94 843 24.89 3.3 37.9 92 2.1 35.8
18:20 1014 29.94 843 24.89 3.3 37.9 91 2 35.5
18:25 1014 29.94 843 24.89 3.3 37.9 92 2.1 35.8
18:30 1014 29.94 843 24.89 3.2 37.8 92 2 35.7
18:35 1014 29.94 843 24.89 3.1 37.6 93 2 35.6
18:40 1014 29.94 843 24.89 3 37.3 93 1.9 35.4
18:45 1014 29.94 843 24.89 2.8 37 94 1.9 35.4
18:50 1014 29.94 843 24.89 2.8 37.1 94 2 35.6
18:55 1014 29.94 843 24.89 2.9 37.3 93 2 35.5
19:00 1014 29.94 843 24.89 3 37.3 93 1.9 35.4
19:05 1014 29.94 843 24.89 3 37.4 93 2 35.6
19:10 1014 29.94 843 24.89 3 37.5 93 2.1 35.7
19:15 1014 29.94 843 24.89 3 37.4 93 1.9 35.5
19:20 1014 29.94 844 24.92 2.9 37.3 94 2 35.6
19:25 1014 29.94 844 24.92 2.9 37.2 94 2 35.6
19:30 1014 29.94 844 24.92 2.9 37.2 94 2 35.6
19:35 1014 29.94 844 24.92 3 37.4 94 2.1 35.8
19:40 1015 29.97 844 24.92 3 37.4 94 2.1 35.7
19:45 1015 29.97 844 24.92 3 37.4 93 2 35.6
19:50 1015 29.97 844 24.92 3 37.4 94 2.1 35.8
19:55 1015 29.97 844 24.92 3 37.3 94 2.1 35.8
20:00 1015 29.97 844 24.92 2.9 37.2 95 2.1 35.8
20:05 1015 29.97 844 24.92 2.8 37 95 2 35.6
20:10 1015 29.97 844 24.92 2.8 37 95 2.1 35.7
20:15 1015 29.97 844 24.92 2.8 37.1 95 2.1 35.9
20:20 1015 29.97 844 24.92 3 37.4 94 2.2 35.9
20:25 1015 29.97 844 24.92 3.1 37.5 94 2.2 36
20:30 1015 29.97 844 24.92 3.1 37.5 94 2.2 36
20:35 1015 29.97 844 24.92 3.1 37.6 94 2.2 36
20:40 1015 29.97 844 24.92 3.2 37.7 94 2.3 36.2
20:45 1015 29.97 844 24.92 3.2 37.7 94 2.3 36.2
20:50 1015 29.97 844 24.92 3.2 37.7 94 2.4 36.3
20:55 1015 29.97 844 24.92 3.2 37.7 94 2.4 36.2
21:00 1015 29.97 845 24.95 3.2 37.8 94 2.4 36.2
21:05 1015 29.97 845 24.95 3.2 37.8 93 2.2 36
21:10 1015 29.97 845 24.95 3.2 37.8 93 2.1 35.8
21:15 1015 29.97 845 24.95 3.2 37.7 93 2.1 35.8
21:20 1016 30 845 24.95 3.2 37.8 93 2.2 35.9
21:25 1016 30 845 24.95 3.4 38.1 92 2.2 36
21:30 1016 30 845 24.95 3.3 38 92 2.1 35.9
21:35 1016 30 845 24.95 3.3 37.9 92 2.1 35.8
21:40 1016 30 845 24.95 3.3 38 92 2.1 35.8
21:45 1016 30 845 24.95 3.3 37.9 92 2.2 35.9
21:50 1016 30 845 24.95 3.2 37.8 92 2.1 35.7
21:55 1016 30 845 24.95 3.2 37.8 92 2.1 35.7
22:00 1016 30 845 24.95 3.2 37.8 92 2.1 35.7
22:05 1016 30 845 24.95 3.3 37.9 92 2.1 35.8
22:10 1016 30 845 24.95 3.3 37.9 92 2.1 35.7
22:15 1016 30 845 24.95 3.3 37.9 93 2.2 35.9
22:20 1016 30 845 24.95 3.3 37.9 93 2.2 36
22:25 1016 30 845 24.95 3.3 38 92 2.2 35.9
22:30 1016 30 845 24.95 3.3 38 92 2.2 36
22:35 1016 30 845 24.95 3.3 37.9 93 2.2 36
22:40 1016 30 845 24.95 3.2 37.8 93 2.2 35.9
22:45 1016 30 845 24.95 3.1 37.6 93 2.1 35.8
22:50 1016 30 845 24.95 3.1 37.6 93 2.1 35.8
22:55 1016 30 845 24.95 3.1 37.6 93 2.1 35.8
23:00 1016 30 845 24.95 3.1 37.5 93 2.1 35.7
23:05 1016 30 845 24.95 3.1 37.6 94 2.2 35.9
23:10 1016 30 845 24.95 3.1 37.6 93 2.1 35.8
23:15 1016 30 845 24.95 3.1 37.5 94 2.1 35.8
23:20 1016 30 845 24.95 3 37.4 94 2.1 35.8
23:25 1016 30 845 24.95 3 37.4 94 2.1 35.8
23:30 1016 30 845 24.95 3.1 37.5 94 2.2 35.9
23:35 1016 30 845 24.95 3.1 37.6 93 2.1 35.8
23:40 1016 30 845 24.95 3.1 37.6 93 2 35.7
23:45 1016 30 845 24.95 3.1 37.6 92 2 35.5
23:50 1016 30 845 24.95 3 37.5 93 2.1 35.7
23:55 1016 30 845 24.95 3.1 37.7 93 2.1 35.8
24:00 1016 30 845 24.95 3.1 37.6 93 2.1 35.8